EW5603 Weather Reports


Display with metric or nautical units.
time (UTC)temp
F
wind
direction
speed
MPH
gust
MPH
rain 1hr
in
rain 24hr
in
rain mn
in
humidity
%
barometer
mb
20260510225321 60 0.0 0.0 0.00 0.07 0.00 88 1021.1
20260510225222 60 0.0 0.0 0.00 0.07 0.00 88 1021.1
20260510225122 60 0.0 0.0 0.00 0.08 0.00 88 1021.1
20260510225022 60 0.0 0.0 0.00 0.11 0.00 88 1021.1
20260510225005 60 0.0 0.0 0.00 0.11 0.00 88 1021.1
20260510224821 60 0.0 0.0 0.00 0.11 0.00 88 1021.1
20260510224723 60 0.0 0.0 0.00 0.11 0.00 88 1021.1
20260510224622 60 0.0 0.0 0.00 0.11 0.00 88 1021.2
20260510224543 60 0.0 0.0 0.00 0.11 0.00 88 1021.1
20260510224442 60 0.0 1.0 0.00 0.12 0.00 88 1021.2
20260510224324 60 0.0 1.0 0.00 0.12 0.00 88 1021.2
20260510224224 60 0.0 0.0 0.00 0.13 0.00 88 1021.2
20260510224122 60 0.0 1.0 0.00 0.13 0.00 88 1021.1
20260510224023 60 0.0 0.0 0.00 0.14 0.00 88 1021.0
20260510223922 60 0.0 1.0 0.00 0.14 0.00 88 1021.0
20260510223823 59 0.0 1.0 0.00 0.15 0.00 88 1021.1
20260510223721 59 0.0 1.0 0.00 0.15 0.00 88 1021.0
20260510223621 59 0.0 1.0 0.00 0.15 0.00 88 1021.0
20260510223522 59 248 1.0 2.0 0.00 0.15 0.00 88 1021.1
20260510223423 59 248 1.0 2.0 0.00 0.16 0.00 88 1021.1
20260510223323 59 248 1.0 2.0 0.00 0.16 0.00 88 1021.2
20260510223223 59 248 1.0 1.0 0.00 0.16 0.00 87 1021.2
20260510223122 59 0.0 0.0 0.00 0.16 0.00 88 1021.2
20260510223023 59 0.0 0.0 0.00 0.16 0.00 88 1021.2
20260510222921 59 0.0 0.0 0.00 0.16 0.00 87 1021.2
20260510222822 59 0.0 0.0 0.00 0.17 0.00 87 1021.2
20260510222722 59 0.0 1.0 0.00 0.17 0.00 87 1021.2
20260510222644 59 248 1.0 2.0 0.00 0.17 0.00 87 1021.2
20260510222522 59 248 2.0 2.0 0.00 0.17 0.00 86 1021.2
20260510222422 59 225 2.0 2.0 0.00 0.17 0.00 86 1021.2
20260510222322 59 0.0 1.0 0.00 0.17 0.00 86 1021.1
20260510222222 59 0.0 0.0 0.00 0.17 0.00 86 1021.2
20260510222122 60 0.0 1.0 0.00 0.17 0.00 86 1021.2
20260510222024 60 0.0 1.0 0.00 0.17 0.00 86 1021.2
20260510221942 60 0.0 0.0 0.00 0.17 0.00 87 1021.2
20260510221822 60 225 1.0 2.0 0.00 0.17 0.00 86 1021.2
20260510221722 60 225 2.0 2.0 0.00 0.18 0.00 86 1021.2
20260510221622 60 225 1.0 2.0 0.00 0.18 0.00 86 1021.2
20260510221522 60 0.0 1.0 0.00 0.18 0.00 86 1021.2
20260510221423 60 0.0 1.0 0.00 0.18 0.00 85 1021.2
20260510221322 60 0.0 1.0 0.00 0.18 0.00 85 1021.2
20260510221223 60 225 2.0 3.0 0.00 0.18 0.00 85 1021.2
20260510221122 60 225 2.0 3.0 0.00 0.19 0.00 84 1021.2
20260510221022 60 0.0 2.0 0.00 0.19 0.00 84 1021.3
20260510220922 61 225 1.0 2.0 0.00 0.19 0.00 84 1021.2
20260510220823 61 225 1.0 3.0 0.00 0.19 0.00 84 1021.2
20260510220722 61 225 1.0 2.0 0.00 0.20 0.00 84 1021.2
20260510220622 61 225 2.0 3.0 0.00 0.20 0.00 84 1021.2
20260510220542 61 225 1.0 1.0 0.00 0.21 0.00 85 1021.2
20260510220422 61 225 1.0 2.0 0.00 0.22 0.00 84 1021.2
20260510220322 61 0.0 1.0 0.00 0.23 0.00 85 1021.2
20260510220223 61 0.0 1.0 0.00 0.23 0.00 85 1021.1
20260510220122 62 0.0 1.0 0.00 0.23 0.00 85 1021.1
20260510220022 62 0.0 1.0 0.00 0.24 0.00 84 1021.2
20260510215922 62 225 1.0 1.0 0.00 0.24 0.00 84 1021.2
20260510215903 62 225 1.0 2.0 0.00 0.25 0.00 85 1021.2
20260510215723 62 225 1.0 1.0 0.00 0.25 0.00 84 1021.1
20260510215623 62 0.0 1.0 0.00 0.25 0.00 84 1021.1
20260510215522 62 0.0 0.0 0.00 0.26 0.00 84 1021.1
20260510215422 62 225 1.0 2.0 0.00 0.26 0.00 84 1021.1
20260510215322 62 225 1.0 1.0 0.00 0.26 0.00 84 1021.1
20260510215222 62 0.0 1.0 0.00 0.27 0.00 84 1021.0
20260510215122 62 0.0 1.0 0.00 0.27 0.00 84 1021.0
20260510215022 62 225 1.0 2.0 0.00 0.27 0.00 84 1021.0
20260510214922 62 225 1.0 2.0 0.00 0.27 0.00 84 1021.0
20260510214823 62 225 1.0 2.0 0.00 0.28 0.00 84 1021.1
20260510214742 62 0.0 1.0 0.00 0.28 0.00 83 1021.1
20260510214642 62 225 1.0 2.0 0.00 0.28 0.00 83 1021.0
20260510214525 62 225 2.0 2.0 0.00 0.28 0.00 83 1021.0
20260510214423 62 225 1.0 2.0 0.00 0.28 0.00 83 1021.0
20260510214325 62 225 1.0 2.0 0.00 0.28 0.00 84 1021.0
20260510214225 62 0.0 1.0 0.00 0.29 0.00 84 1020.9
20260510214122 62 0.0 1.0 0.00 0.29 0.00 85 1021.0
20260510214102 62 0.0 1.0 0.00 0.29 0.00 85 1020.9
20260510213923 62 0.0 0.0 0.00 0.30 0.00 85 1020.9
20260510213844 62 0.0 0.0 0.00 0.30 0.00 85 1020.9
20260510213723 62 0.0 0.0 0.00 0.31 0.00 85 1020.8
20260510213622 62 0.0 0.0 0.00 0.31 0.00 84 1020.8
20260510213522 62 0.0 0.0 0.00 0.31 0.00 84 1020.8
20260510213422 62 0.0 0.0 0.00 0.31 0.00 84 1020.8
20260510213342 62 0.0 0.0 0.00 0.31 0.00 83 1020.7
20260510213222 62 225 1.0 2.0 0.00 0.31 0.00 84 1020.8
20260510213122 62 225 1.0 2.0 0.00 0.32 0.00 84 1020.8
20260510213022 62 225 1.0 2.0 0.00 0.32 0.00 84 1020.8
20260510212922 62 225 1.0 2.0 0.00 0.32 0.00 83 1020.7
20260510212822 62 225 1.0 2.0 0.00 0.32 0.00 83 1020.8
20260510212803 62 0.0 1.0 0.00 0.32 0.00 83 1020.8
20260510212622 62 225 1.0 1.0 0.00 0.32 0.00 84 1020.8
20260510212523 62 225 1.0 2.0 0.00 0.33 0.00 84 1020.8
20260510212423 62 0.0 1.0 0.00 0.33 0.00 84 1020.8
20260510212342 62 225 1.0 2.0 0.00 0.33 0.00 85 1020.8
20260510212222 62 248 1.0 2.0 0.00 0.33 0.00 85 1020.8
20260510212142 62 0.0 0.0 0.00 0.33 0.00 85 1020.8
20260510212022 62 0.0 0.0 0.00 0.33 0.00 85 1020.8
20260510211922 62 0.0 0.0 0.00 0.33 0.00 84 1020.8
20260510211822 62 0.0 0.0 0.00 0.33 0.00 84 1020.8
20260510211723 62 0.0 0.0 0.00 0.33 0.00 84 1020.8
20260510211622 61 0.0 0.0 0.00 0.33 0.00 84 1020.8
20260510211523 62 0.0 0.0 0.00 0.33 0.00 84 1020.8
20260510211421 62 0.0 2.0 0.00 0.33 0.00 84 1020.8
20260510211342 61 248 1.0 2.0 0.00 0.33 0.00 84 1020.8
20260510211224 61 0.0 1.0 0.00 0.33 0.00 84 1020.8
20260510211123 61 248 1.0 2.0 0.00 0.33 0.00 84 1020.8
20260510211023 61 248 1.0 3.0 0.00 0.33 0.00 84 1020.8
20260510210923 61 0.0 1.0 0.00 0.33 0.00 85 1020.8
20260510210823 61 0.0 2.0 0.00 0.33 0.00 84 1020.8
20260510210742 61 248 1.0 2.0 0.00 0.33 0.00 85 1020.8
20260510210622 61 0.0 1.0 0.00 0.33 0.00 85 1020.8
20260510210522 61 0.0 1.0 0.00 0.33 0.00 84 1020.8
20260510210422 61 248 1.0 3.0 0.00 0.33 0.00 85 1020.8
20260510210342 61 0.0 1.0 0.00 0.33 0.00 85 1020.7
20260510210242 61 0.0 1.0 0.00 0.33 0.00 85 1020.8
20260510210122 61 158 1.0 3.0 0.00 0.33 0.00 85 1020.8
20260510210022 61 0.0 1.0 0.00 0.33 0.00 86 1020.8
20260510205942 61 0.0 1.0 0.00 0.33 0.00 85 1020.8
20260510205844 61 0.0 0.0 0.00 0.33 0.00 85 1020.8
20260510205722 61 158 2.0 3.0 0.00 0.33 0.00 85 1020.8
20260510205622 61 158 1.0 3.0 0.00 0.33 0.00 85 1020.8
20260510205523 61 158 1.0 2.0 0.00 0.33 0.00 84 1020.7
20260510205443 61 158 2.0 5.0 0.00 0.33 0.00 84 1020.8
20260510205234 61 158 2.0 4.0 0.00 0.33 0.00 85 1020.8
20260510205122 61 158 1.0 2.0 0.00 0.33 0.00 85 1020.7
20260510205022 61 158 1.0 2.0 0.00 0.33 0.00 86 1020.8
20260510204922 61 158 1.0 2.0 0.00 0.33 0.00 85 1020.8
20260510204822 61 0.0 1.0 0.00 0.33 0.00 85 1020.8
20260510204722 61 158 2.0 4.0 0.00 0.33 0.00 86 1020.7
20260510204622 61 0.0 1.0 0.00 0.33 0.00 86 1020.7
20260510204523 61 158 1.0 2.0 0.00 0.33 0.00 86 1020.7
20260510204422 61 158 1.0 2.0 0.00 0.33 0.00 86 1020.7
20260510204322 61 0.0 1.0 0.00 0.33 0.00 86 1020.7
20260510204222 61 0.0 1.0 0.00 0.33 0.00 86 1020.7
20260510204142 61 158 1.0 2.0 0.00 0.33 0.00 85 1020.6
20260510204022 61 158 1.0 4.0 0.00 0.33 0.00 86 1020.6
20260510204004 61 0.0 1.0 0.00 0.33 0.00 86 1020.7
20260510203823 61 0.0 1.0 0.00 0.33 0.00 86 1020.7
20260510203742 61 158 1.0 2.0 0.00 0.33 0.00 86 1020.7
20260510203623 61 158 1.0 2.0 0.00 0.33 0.00 85 1020.7
20260510203522 61 158 3.0 5.0 0.00 0.33 0.00 85 1020.6
20260510203422 61 225 1.0 3.0 0.00 0.33 0.00 86 1020.7
20260510203322 61 0.0 2.0 0.00 0.33 0.00 86 1020.6
20260510203222 61 135 1.0 2.0 0.00 0.33 0.00 85 1020.6
20260510203142 61 0.0 2.0 0.00 0.33 0.00 85 1020.6
20260510203022 61 135 2.0 3.0 0.00 0.33 0.00 86 1020.5
20260510202922 61 135 2.0 4.0 0.00 0.33 0.00 85 1020.6
20260510202843 61 180 1.0 2.0 0.00 0.33 0.00 86 1020.6
20260510202744 61 180 1.0 1.0 0.00 0.33 0.00 85 1020.6
20260510202622 61 180 1.0 2.0 0.00 0.33 0.00 86 1020.6
20260510202522 61 180 1.0 3.0 0.00 0.33 0.00 86 1020.6
20260510202422 61 180 1.0 3.0 0.00 0.33 0.00 86 1020.6
20260510202322 61 180 1.0 3.0 0.00 0.33 0.00 87 1020.6
20260510202222 61 0.0 0.0 0.00 0.33 0.00 87 1020.6
20260510202122 61 0.0 0.0 0.00 0.33 0.00 86 1020.6
20260510202022 61 0.0 0.0 0.00 0.33 0.00 86 1020.6
20260510201922 61 0.0 1.0 0.00 0.33 0.00 85 1020.6
20260510201822 61 180 1.0 3.0 0.00 0.33 0.00 86 1020.6
20260510201742 61 180 1.0 2.0 0.00 0.33 0.00 86 1020.6
20260510201642 61 180 1.0 2.0 0.00 0.33 0.00 85 1020.6
20260510201522 61 180 1.0 2.0 0.00 0.33 0.00 86 1020.6
20260510201422 61 180 1.0 2.0 0.00 0.33 0.00 87 1020.7
20260510201343 61 180 1.0 2.0 0.00 0.33 0.00 87 1020.7
20260510201323 61 0.0 1.0 0.00 0.33 0.00 87 1020.6
20260510201122 61 180 1.0 2.0 0.00 0.34 0.00 87 1020.6
20260510201022 60 0.0 0.0 0.00 0.34 0.00 87 1020.6
20260510200921 60 0.0 0.0 0.00 0.34 0.00 87 1020.7
20260510200842 60 180 1.0 2.0 0.00 0.34 0.00 86 1020.7
20260510200743 60 180 1.0 3.0 0.00 0.34 0.00 86 1020.7
20260510200623 60 203 1.0 3.0 0.00 0.34 0.00 86 1020.7
20260510200542 60 203 1.0 2.0 0.00 0.34 0.00 86 1020.8
20260510200423 60 0.0 1.0 0.00 0.34 0.00 87 1020.8
20260510200323 60 0.0 1.0 0.00 0.34 0.00 86 1020.8
20260510200222 60 0.0 0.0 0.00 0.35 0.00 86 1020.8
20260510200122 60 0.0 1.0 0.00 0.35 0.00 86 1020.8
20260510200024 60 203 1.0 1.0 0.00 0.35 0.00 85 1020.8
20260510195923 60 0.0 1.0 0.00 0.35 0.00 86 1020.8
20260510195823 61 203 1.0 2.0 0.00 0.35 0.00 86 1020.8
20260510195724 61 203 1.0 1.0 0.00 0.36 0.00 86 1020.8
20260510195625 61 203 1.0 1.0 0.00 0.36 0.00 85 1020.8
20260510195522 61 203 1.0 2.0 0.00 0.36 0.00 85 1020.8
20260510195422 61 203 1.0 2.0 0.00 0.36 0.00 85 1020.8
20260510195322 61 0.0 3.0 0.00 0.36 0.00 85 1020.8
20260510195222 61 225 2.0 4.0 0.00 0.36 0.00 85 1020.9
20260510195122 61 203 2.0 4.0 0.00 0.36 0.00 85 1020.9
20260510195022 61 203 1.0 2.0 0.00 0.36 0.00 86 1020.9
20260510194923 61 0.0 1.0 0.00 0.36 0.00 86 1020.9
20260510194821 61 203 2.0 3.0 0.00 0.36 0.00 85 1020.9
20260510194722 61 203 1.0 2.0 0.00 0.36 0.00 86 1020.9
20260510194642 61 203 1.0 2.0 0.00 0.36 0.00 85 1021.0
20260510194542 61 0.0 1.0 0.00 0.37 0.00 85 1021.0
20260510194422 61 203 1.0 2.0 0.00 0.37 0.00 85 1020.9
20260510194322 61 203 1.0 2.0 0.00 0.37 0.00 85 1020.9
20260510194222 61 270 2.0 3.0 0.00 0.37 0.00 85 1021.0
20260510194122 61 203 2.0 3.0 0.00 0.37 0.00 85 1021.0
20260510194022 62 203 1.0 3.0 0.00 0.38 0.00 86 1021.0
20260510193922 61 225 1.0 2.0 0.00 0.38 0.00 85 1020.9
20260510193822 61 225 2.0 3.0 0.00 0.38 0.00 85 1020.9
20260510193742 62 0.0 1.0 0.00 0.38 0.00 85 1020.9
20260510193642 62 225 1.0 3.0 0.00 0.38 0.00 85 1020.9
20260510193542 62 248 1.0 3.0 0.00 0.38 0.00 85 1021.0
20260510193421 62 248 1.0 3.0 0.00 0.39 0.00 85 1021.0
20260510193322 62 248 1.0 3.0 0.00 0.39 0.00 85 1021.0
20260510193222 62 0.0 0.0 0.00 0.39 0.00 85 1020.9
20260510193122 62 0.0 1.0 0.00 0.39 0.00 85 1020.9
20260510193023 62 135 1.0 3.0 0.00 0.39 0.00 85 1020.9
20260510192922 62 203 2.0 4.0 0.00 0.39 0.00 85 1020.9
20260510192822 61 203 1.0 2.0 0.00 0.39 0.00 85 1020.9
20260510192722 61 0.0 2.0 0.00 0.39 0.00 85 1020.9
20260510192622 61 0.0 1.0 0.00 0.40 0.00 85 1020.9
20260510192523 61 203 2.0 5.0 0.00 0.40 0.00 85 1020.9
20260510192444 61 158 2.0 5.0 0.00 0.40 0.00 85 1020.9
20260510192322 61 0.0 2.0 0.00 0.40 0.00 85 1021.0
20260510192222 61 158 1.0 2.0 0.00 0.40 0.00 86 1021.0
20260510192125 61 158 4.0 6.0 0.00 0.40 0.00 86 1021.0
20260510192022 61 158 2.0 4.0 0.00 0.40 0.00 86 1021.0
20260510191942 61 225 1.0 3.0 0.00 0.40 0.00 86 1021.0
20260510191822 61 180 1.0 4.0 0.00 0.40 0.00 86 1021.0
20260510191722 61 0.0 0.0 0.00 0.40 0.00 87 1021.0
20260510191622 61 0.0 0.0 0.00 0.41 0.00 86 1021.0
20260510191523 61 0.0 2.0 0.00 0.41 0.00 86 1021.0
20260510191422 61 180 1.0 2.0 0.00 0.41 0.00 86 1021.0
20260510191322 61 0.0 0.0 0.00 0.41 0.00 86 1021.0
20260510191221 61 0.0 1.0 0.00 0.41 0.00 86 1021.0
20260510191122 61 180 1.0 2.0 0.00 0.41 0.00 85 1021.0
20260510191022 61 180 2.0 4.0 0.00 0.41 0.00 85 1021.1
20260510190922 61 225 2.0 6.0 0.00 0.41 0.00 85 1021.1
20260510190822 61 0.0 0.0 0.00 0.41 0.00 85 1021.1
20260510190742 61 0.0 0.0 0.00 0.41 0.00 86 1021.1
20260510190623 61 0.0 0.0 0.00 0.41 0.00 86 1021.1
20260510190522 61 0.0 0.0 0.00 0.41 0.00 86 1021.1
20260510190422 61 0.0 0.0 0.00 0.41 0.00 86 1021.1
20260510190342 61 0.0 0.0 0.00 0.42 0.00 86 1021.1
20260510190222 61 0.0 0.0 0.00 0.42 0.00 86 1021.1
20260510190122 61 0.0 0.0 0.00 0.42 0.00 86 1021.1
20260510190043 61 0.0 0.0 0.00 0.42 0.00 86 1021.2
20260510185921 61 0.0 0.0 0.00 0.42 0.00 85 1021.2
20260510185822 61 0.0 1.0 0.00 0.42 0.00 85 1021.2
20260510185722 61 225 1.0 2.0 0.00 0.42 0.00 85 1021.2
20260510185622 61 225 1.0 2.0 0.00 0.42 0.00 84 1021.2
20260510185522 61 203 2.0 3.0 0.00 0.42 0.00 85 1021.2
20260510185422 61 248 1.0 2.0 0.00 0.42 0.00 85 1021.1
20260510185323 61 248 1.0 2.0 0.00 0.43 0.00 85 1021.1
20260510185222 61 0.0 1.0 0.00 0.43 0.00 85 1021.1
20260510185121 61 0.0 0.0 0.00 0.43 0.00 85 1021.1
20260510185022 61 0.0 0.0 0.00 0.43 0.00 85 1021.1
20260510184922 61 0.0 0.0 0.00 0.43 0.00 85 1021.2
20260510184822 61 0.0 1.0 0.00 0.43 0.00 84 1021.2
20260510184722 62 158 1.0 4.0 0.00 0.43 0.00 84 1021.2
20260510184622 62 135 3.0 4.0 0.00 0.44 0.00 84 1021.1
20260510184521 62 90 1.0 2.0 0.00 0.44 0.00 84 1021.2
20260510184421 62 0.0 1.0 0.00 0.44 0.00 84 1021.2
20260510184342 62 0.0 1.0 0.00 0.44 0.00 84 1021.2
20260510184222 62 0.0 1.0 0.00 0.44 0.00 84 1021.2
20260510184122 62 90 1.0 1.0 0.00 0.44 0.00 84 1021.2
20260510184023 62 0.0 2.0 0.00 0.45 0.00 84 1021.3
20260510183922 62 0.0 2.0 0.00 0.45 0.00 84 1021.2
20260510183821 62 0.0 2.0 0.00 0.45 0.00 83 1021.3
20260510183722 62 90 1.0 2.0 0.00 0.45 0.00 84 1021.2
20260510183621 62 113 2.0 3.0 0.00 0.45 0.00 84 1021.2
20260510183522 62 0.0 1.0 0.00 0.46 0.00 84 1021.2
20260510183421 62 0.0 1.0 0.00 0.46 0.00 84 1021.2
20260510183321 62 0.0 1.0 0.00 0.46 0.00 83 1021.2
20260510183221 62 113 1.0 2.0 0.00 0.46 0.00 83 1021.2
20260510183122 63 113 3.0 4.0 0.00 0.46 0.00 84 1021.2
20260510183042 63 180 1.0 2.0 0.00 0.46 0.00 83 1021.2
20260510182922 63 180 3.0 6.0 0.00 0.46 0.00 83 1021.2
20260510182841 63 180 2.0 4.0 0.00 0.46 0.00 83 1021.2
20260510182722 63 158 1.0 4.0 0.00 0.46 0.00 83 1021.1
20260510182622 63 180 1.0 4.0 0.00 0.47 0.00 83 1021.2
20260510182542 63 180 1.0 3.0 0.00 0.47 0.00 83 1021.2
20260510182443 63 203 2.0 4.0 0.00 0.47 0.00 84 1021.1
20260510182321 63 203 1.0 4.0 0.00 0.47 0.00 84 1021.1
20260510182242 63 203 1.0 4.0 0.00 0.47 0.00 83 1021.1
20260510182122 63 0.0 2.0 0.00 0.47 0.00 83 1021.1
20260510182022 63 135 2.0 3.0 0.00 0.47 0.00 83 1021.1
20260510181922 63 113 2.0 4.0 0.00 0.48 0.00 85 1021.1
20260510181903 63 113 2.0 3.0 0.00 0.49 0.00 83 1021.2
20260510181722 63 113 3.0 5.0 0.00 0.51 0.00 85 1021.2
20260510181623 63 180 3.0 4.0 0.00 0.51 0.00 83 1021.2
20260510181524 63 225 1.0 3.0 0.00 0.51 0.00 84 1021.2
20260510181423 63 180 2.0 5.0 0.00 0.51 0.00 84 1021.2
20260510181322 63 158 1.0 3.0 0.00 0.51 0.00 84 1021.2
20260510181224 63 180 2.0 2.0 0.00 0.51 0.00 84 1021.2
20260510181122 63 135 2.0 4.0 0.00 0.51 0.00 84 1021.2
20260510181021 63 135 1.0 3.0 0.00 0.51 0.00 83 1021.2
20260510181002 63 0.0 2.0 0.00 0.51 0.00 84 1021.3
20260510180823 63 135 2.0 3.0 0.00 0.51 0.00 85 1021.3
20260510180722 63 158 2.0 3.0 0.00 0.51 0.00 85 1021.4
20260510180703 63 158 2.0 3.0 0.00 0.51 0.00 87 1021.4
20260510180522 63 158 2.0 3.0 0.00 0.51 0.00 86 1021.5
20260510180421 63 158 1.0 4.0 0.00 0.51 0.00 85 1021.5
20260510180341 62 225 3.0 4.0 0.00 0.51 0.00 84 1021.5
20260510180222 62 180 1.0 3.0 0.00 0.51 0.00 84 1021.5
20260510180121 62 158 3.0 5.0 0.00 0.51 0.00 83 1021.5
20260510180021 62 158 2.0 4.0 0.00 0.51 0.00 83 1021.5
20260510175921 63 180 4.0 6.0 0.00 0.51 0.00 84 1021.5
20260510175841 63 180 3.0 5.0 0.00 0.51 0.00 85 1021.5
20260510175722 63 180 3.0 5.0 0.00 0.51 0.00 84 1021.5
20260510175642 63 158 3.0 5.0 0.00 0.51 0.00 85 1021.5
20260510175522 63 135 1.0 2.0 0.00 0.51 0.00 87 1021.4
20260510175423 62 293 3.0 6.0 0.00 0.51 0.00 85 1021.5
20260510175321 62 293 3.0 4.0 0.00 0.51 0.00 89 1021.5
20260510175222 62 158 1.0 2.0 0.00 0.51 0.00 88 1021.4
20260510175121 62 158 2.0 4.0 0.00 0.51 0.00 89 1021.4
20260510175042 62 0.0 1.0 0.00 0.51 0.00 89 1021.4
20260510174921 62 158 2.0 4.0 0.00 0.51 0.00 88 1021.4
20260510174821 61 113 1.0 2.0 0.00 0.51 0.00 87 1021.4
20260510174721 61 113 2.0 3.0 0.00 0.51 0.00 86 1021.4
20260510174621 61 135 2.0 3.0 0.00 0.51 0.00 87 1021.4
20260510174521 61 203 2.0 6.0 0.00 0.51 0.00 87 1021.5
20260510174422 61 0.0 1.0 0.00 0.51 0.00 86 1021.5
20260510174322 61 270 3.0 4.0 0.00 0.51 0.00 85 1021.4
20260510174221 61 158 4.0 6.0 0.00 0.51 0.00 86 1021.4
20260510174122 61 180 3.0 4.0 0.00 0.51 0.00 87 1021.5
20260510174022 61 248 2.0 5.0 0.00 0.51 0.00 89 1021.5
20260510173921 61 248 2.0 3.0 0.00 0.51 0.00 88 1021.5
20260510173842 61 180 2.0 3.0 0.00 0.51 0.00 88 1021.5
20260510173721 61 180 1.0 2.0 0.00 0.51 0.00 87 1021.5
20260510173621 61 180 2.0 4.0 0.00 0.51 0.00 87 1021.4
20260510173543 61 225 1.0 2.0 0.00 0.51 0.00 87 1021.4
20260510173422 61 225 2.0 3.0 0.00 0.51 0.00 87 1021.5
20260510173344 61 203 1.0 4.0 0.00 0.51 0.00 87 1021.4
20260510173224 61 203 2.0 4.0 0.00 0.51 0.00 87 1021.4
20260510173122 61 158 1.0 3.0 0.00 0.51 0.00 87 1021.4
20260510173022 61 158 1.0 3.0 0.00 0.51 0.00 87 1021.4
20260510172923 61 158 1.0 2.0 0.00 0.51 0.00 86 1021.4
20260510172823 61 158 3.0 5.0 0.00 0.51 0.00 86 1021.4
20260510172722 61 270 2.0 4.0 0.00 0.51 0.00 87 1021.4
20260510172622 61 293 2.0 5.0 0.00 0.51 0.00 87 1021.4
20260510172521 61 203 1.0 2.0 0.00 0.51 0.00 88 1021.5
20260510172421 61 203 1.0 2.0 0.00 0.51 0.00 87 1021.4
20260510172321 61 0.0 2.0 0.00 0.51 0.00 87 1021.5
20260510172221 61 203 1.0 2.0 0.00 0.51 0.00 87 1021.4
20260510172121 61 203 1.0 2.0 0.00 0.51 0.00 87 1021.4
20260510172024 61 203 1.0 2.0 0.00 0.51 0.00 87 1021.3
20260510171921 60 0.0 2.0 0.00 0.51 0.00 88 1021.3
20260510171821 60 180 1.0 2.0 0.00 0.51 0.00 89 1021.3
20260510171723 60 180 1.0 2.0 0.00 0.51 0.00 88 1021.2
20260510171641 60 180 1.0 2.0 0.00 0.51 0.00 88 1021.2
20260510171521 60 180 2.0 2.0 0.00 0.51 0.00 88 1021.3
20260510171422 60 293 1.0 3.0 0.00 0.51 0.00 89 1021.2
20260510171321 60 0.0 2.0 0.00 0.51 0.00 89 1021.2
20260510171221 60 158 1.0 2.0 0.00 0.51 0.00 88 1021.3
20260510171122 60 0.0 1.0 0.00 0.51 0.00 87 1021.3
20260510171022 60 0.0 2.0 0.00 0.51 0.00 87 1021.3
20260510170921 60 158 2.0 2.0 0.00 0.51 0.00 87 1021.3
20260510170822 60 158 2.0 3.0 0.00 0.51 0.00 86 1021.3
20260510170721 60 135 3.0 5.0 0.00 0.51 0.00 87 1021.3
20260510170702 60 180 3.0 5.0 0.00 0.51 0.00 87 1021.4
20260510170522 60 158 2.0 4.0 0.00 0.51 0.00 87 1021.4
20260510170423 60 158 1.0 4.0 0.00 0.51 0.00 87 1021.4
20260510170322 60 158 2.0 5.0 0.00 0.51 0.00 87 1021.4
20260510170221 60 180 2.0 5.0 0.00 0.51 0.00 86 1021.4
20260510170121 60 158 5.0 8.0 0.00 0.51 0.00 87 1021.5
20260510170021 60 158 2.0 3.0 0.00 0.51 0.00 87 1021.6
20260510165923 60 158 2.0 5.0 0.00 0.51 0.00 87 1021.6
20260510165822 60 203 3.0 5.0 0.00 0.51 0.00 87 1021.6
20260510165722 60 180 3.0 4.0 0.00 0.51 0.00 87 1021.5
20260510165621 60 270 1.0 3.0 0.00 0.51 0.00 87 1021.4
20260510165541 60 270 2.0 4.0 0.00 0.51 0.00 88 1021.5
20260510165422 60 180 3.0 6.0 0.00 0.51 0.00 88 1021.5
20260510165321 60 0.0 2.0 0.00 0.51 0.00 88 1021.4
20260510165241 60 158 3.0 6.0 0.00 0.51 0.00 88 1021.4
20260510165121 60 180 1.0 3.0 0.00 0.51 0.00 88 1021.4
20260510165021 60 203 1.0 3.0 0.00 0.51 0.00 88 1021.4
20260510164921 60 203 1.0 3.0 0.00 0.51 0.00 87 1021.5
20260510164821 60 203 3.0 5.0 0.00 0.51 0.00 88 1021.5
20260510164722 60 180 2.0 3.0 0.00 0.51 0.00 88 1021.5
20260510164622 60 180 1.0 3.0 0.00 0.51 0.00 88 1021.5
20260510164521 60 180 2.0 3.0 0.00 0.51 0.00 89 1021.5
20260510164421 60 158 1.0 3.0 0.00 0.51 0.00 89 1021.5
20260510164322 60 158 1.0 3.0 0.00 0.51 0.00 88 1021.5
20260510164242 60 158 1.0 2.0 0.00 0.51 0.00 88 1021.5
20260510164122 60 158 2.0 2.0 0.00 0.51 0.00 88 1021.5
20260510164041 60 180 2.0 3.0 0.00 0.51 0.00 87 1021.5
20260510163942 60 158 4.0 6.0 0.00 0.51 0.00 87 1021.5
20260510163822 60 158 2.0 5.0 0.00 0.51 0.00 88 1021.5
20260510163722 60 270 2.0 4.0 0.00 0.51 0.00 88 1021.5
20260510163621 60 293 3.0 6.0 0.00 0.51 0.00 87 1021.6
20260510163521 60 293 2.0 6.0 0.00 0.51 0.00 88 1021.6
20260510163441 60 0.0 1.0 0.00 0.51 0.00 88 1021.5
20260510163321 60 158 2.0 4.0 0.00 0.51 0.00 87 1021.6
20260510163222 60 180 3.0 4.0 0.00 0.51 0.00 88 1021.6
20260510163122 60 180 1.0 2.0 0.00 0.51 0.00 87 1021.7
20260510163024 60 293 3.0 5.0 0.00 0.51 0.00 87 1021.6
20260510162923 60 180 3.0 7.0 0.00 0.51 0.00 87 1021.6
20260510162822 60 135 2.0 3.0 0.00 0.51 0.00 87 1021.6
20260510162723 60 158 5.0 6.0 0.00 0.51 0.00 87 1021.6
20260510162642 60 270 2.0 4.0 0.00 0.51 0.00 86 1021.6
20260510162521 60 270 3.0 4.0 0.00 0.51 0.00 86 1021.5
20260510162423 60 270 4.0 7.0 0.00 0.51 0.00 87 1021.5
20260510162322 61 293 2.0 5.0 0.00 0.51 0.00 87 1021.5
20260510162222 61 248 2.0 3.0 0.00 0.51 0.00 87 1021.5
20260510162141 61 158 2.0 3.0 0.00 0.51 0.00 87 1021.5
20260510162021 61 158 2.0 2.0 0.00 0.51 0.00 88 1021.6
20260510161941 61 158 2.0 2.0 0.00 0.51 0.00 87 1021.5
20260510161822 61 135 1.0 2.0 0.00 0.51 0.00 87 1021.6
20260510161721 61 158 2.0 4.0 0.00 0.51 0.00 86 1021.6
20260510161621 61 225 2.0 4.0 0.00 0.51 0.00 86 1021.6
20260510161542 61 225 2.0 3.0 0.00 0.51 0.00 86 1021.6
20260510161442 61 225 2.0 4.0 0.00 0.51 0.00 86 1021.7
20260510161321 61 158 1.0 2.0 0.00 0.51 0.00 86 1021.6
20260510161221 61 158 3.0 5.0 0.00 0.51 0.00 87 1021.6
20260510161121 61 225 1.0 3.0 0.00 0.51 0.00 88 1021.5
20260510161021 61 158 1.0 2.0 0.00 0.51 0.00 88 1021.5
20260510160921 61 158 1.0 3.0 0.00 0.51 0.00 88 1021.5
20260510160823 61 0.0 0.0 0.00 0.51 0.00 88 1021.5
20260510160801 61 158 1.0 2.0 0.00 0.51 0.00 88 1021.5
20260510160621 60 158 2.0 5.0 0.00 0.51 0.00 89 1021.4
20260510160521 60 0.0 2.0 0.00 0.51 0.00 88 1021.4
20260510160421 60 225 2.0 3.0 0.00 0.51 0.00 87 1021.4
20260510160323 60 158 2.0 4.0 0.00 0.51 0.00 87 1021.4
20260510160222 60 248 1.0 4.0 0.00 0.51 0.00 88 1021.4
20260510160121 60 248 2.0 4.0 0.00 0.51 0.00 87 1021.4
20260510160022 60 180 2.0 3.0 0.00 0.51 0.00 88 1021.4
20260510155921 60 203 1.0 3.0 0.00 0.51 0.00 88 1021.4
20260510155821 60 203 1.0 3.0 0.00 0.51 0.00 88 1021.5
20260510155741 60 203 1.0 2.0 0.00 0.51 0.00 88 1021.5
20260510155621 60 203 2.0 3.0 0.00 0.51 0.00 87 1021.5
20260510155541 60 158 2.0 4.0 0.00 0.51 0.00 88 1021.5
20260510155421 60 135 1.0 2.0 0.00 0.51 0.00 88 1021.5
20260510155321 60 135 1.0 3.0 0.00 0.51 0.00 88 1021.5
20260510155221 60 180 2.0 3.0 0.00 0.51 0.00 88 1021.6
20260510155122 60 180 1.0 1.0 0.00 0.51 0.00 89 1021.7
20260510155041 60 180 1.0 2.0 0.00 0.51 0.00 90 1021.7
20260510154921 60 0.0 0.0 0.00 0.51 0.00 89 1021.6
20260510154823 59 0.0 1.0 0.00 0.51 0.00 89 1021.7
20260510154803 59 0.0 1.0 0.00 0.51 0.00 88 1021.7
20260510154642 59 203 1.0 2.0 0.00 0.51 0.00 89 1021.7
20260510154523 59 0.0 2.0 0.00 0.51 0.00 89 1021.8
20260510154443 59 0.0 1.0 0.00 0.51 0.00 89 1021.8
20260510154322 59 203 1.0 2.0 0.00 0.51 0.00 89 1021.9
20260510154221 59 203 2.0 8.0 0.00 0.51 0.00 88 1021.9
20260510154122 59 270 6.0 8.0 0.00 0.51 0.00 88 1021.9
20260510154042 59 270 4.0 7.0 0.00 0.51 0.00 88 1021.9
20260510153921 59 0.0 2.0 0.00 0.51 0.00 89 1021.9
20260510153841 59 203 1.0 2.0 0.00 0.51 0.00 89 1021.9
20260510153721 59 0.0 1.0 0.00 0.51 0.00 89 1022.0
20260510153623 59 0.0 1.0 0.00 0.51 0.00 89 1021.9
20260510153541 59 158 2.0 4.0 0.00 0.51 0.00 89 1021.9
20260510153421 59 23 2.0 3.0 0.00 0.51 0.00 89 1021.9
20260510153321 59 248 2.0 4.0 0.00 0.51 0.00 89 1021.9
20260510153221 59 270 3.0 4.0 0.00 0.51 0.00 90 1021.9
20260510153121 59 270 1.0 2.0 0.00 0.51 0.00 90 1021.9
20260510153021 58 270 1.0 3.0 0.00 0.51 0.00 89 1021.9
20260510152921 58 248 2.0 2.0 0.00 0.51 0.00 89 1021.8
20260510152822 58 248 1.0 2.0 0.00 0.51 0.00 89 1021.9
20260510152722 58 270 1.0 6.0 0.00 0.51 0.00 89 1021.8
20260510152621 58 270 3.0 6.0 0.00 0.51 0.00 91 1021.9
20260510152522 58 248 2.0 3.0 0.00 0.51 0.00 90 1021.9
20260510152422 58 0.0 2.0 0.00 0.51 0.00 90 1021.9
20260510152321 58 270 2.0 4.0 0.00 0.51 0.00 89 1022.0
20260510152221 58 270 4.0 7.0 0.00 0.51 0.00 90 1021.9
20260510152121 58 315 3.0 4.0 0.00 0.51 0.00 90 1021.9
20260510152041 58 270 2.0 4.0 0.00 0.51 0.00 90 1021.9
20260510151941 58 158 1.0 2.0 0.00 0.51 0.00 90 1021.9
20260510151821 58 158 2.0 3.0 0.00 0.51 0.00 91 1022.0
20260510151722 58 180 3.0 4.0 0.00 0.51 0.00 91 1022.0
20260510151621 58 270 2.0 3.0 0.00 0.51 0.00 91 1022.0
20260510151521 58 270 2.0 3.0 0.00 0.51 0.00 92 1022.0
20260510151441 57 0.0 2.0 0.00 0.51 0.00 92 1022.0
20260510151321 57 0.0 1.0 0.00 0.51 0.00 92 1022.0
20260510151221 57 270 1.0 2.0 0.00 0.51 0.00 93 1022.0
20260510151141 57 270 1.0 1.0 0.00 0.51 0.00 92 1022.0
20260510151021 57 0.0 1.0 0.00 0.51 0.00 92 1022.0
20260510150921 57 270 1.0 1.0 0.00 0.51 0.00 91 1022.0
20260510150821 57 270 1.0 2.0 0.00 0.51 0.00 91 1022.1
20260510150722 57 270 1.0 2.0 0.00 0.51 0.00 91 1022.0
20260510150621 57 0.0 1.0 0.00 0.51 0.00 91 1022.0
20260510150521 57 270 1.0 3.0 0.00 0.51 0.00 91 1021.9
20260510150416 57 270 2.0 3.0 0.00 0.51 0.00 92 1022.0
20260510150414 57 0.0 1.0 0.00 0.51 0.00 92 1021.9
20260510150203 56 0.0 1.0 0.00 0.51 0.00 93 1021.9
20260510150021 56 0.0 1.0 0.00 0.51 0.00 93 1021.9
20260510145941 56 0.0 1.0 0.00 0.51 0.00 93 1021.9
20260510145821 56 0.0 1.0 0.00 0.51 0.00 93 1021.8
20260510145721 56 0.0 2.0 0.00 0.51 0.00 93 1021.9
20260510145621 56 180 1.0 2.0 0.00 0.51 0.00 93 1021.9
20260510145522 56 0.0 1.0 0.00 0.51 0.00 93 1021.9
20260510145421 56 0.0 1.0 0.00 0.51 0.00 93 1021.9
20260510145321 56 180 1.0 2.0 0.00 0.51 0.00 94 1021.9
20260510145221 56 0.0 1.0 0.00 0.51 0.00 95 1021.9
20260510145121 56 0.0 1.0 0.00 0.51 0.00 94 1021.9
20260510145021 56 0.0 1.0 0.00 0.51 0.00 94 1021.9
20260510144941 55 180 1.0 2.0 0.00 0.51 0.00 94 1021.8
20260510144821 55 0.0 1.0 0.00 0.51 0.00 94 1021.8
20260510144721 55 0.0 1.0 0.00 0.51 0.00 94 1021.7
20260510144622 55 180 1.0 2.0 0.00 0.51 0.00 94 1021.7
20260510144522 55 180 1.0 2.0 0.00 0.51 0.00 94 1021.6
20260510144424 55 0.0 0.0 0.00 0.51 0.00 94 1021.6
20260510144324 55 225 1.0 3.0 0.00 0.51 0.00 94 1021.6
20260510144223 55 0.0 1.0 0.00 0.51 0.00 95 1021.5
20260510144144 55 0.0 0.0 0.00 0.51 0.00 95 1021.5
20260510144022 55 0.0 0.0 0.00 0.51 0.00 94 1021.5
20260510143921 54 225 1.0 2.0 0.00 0.51 0.00 94 1021.5
20260510143821 54 113 1.0 3.0 0.00 0.51 0.00 94 1021.5
20260510143722 54 113 3.0 3.0 0.00 0.51 0.00 94 1021.5
20260510143623 54 113 2.0 3.0 0.00 0.51 0.00 94 1021.6
20260510143521 54 113 2.0 4.0 0.00 0.51 0.00 95 1021.5
20260510143421 54 113 2.0 2.0 0.00 0.51 0.00 95 1021.5
20260510143321 54 113 2.0 3.0 0.00 0.51 0.00 94 1021.5
20260510143224 54 113 2.0 3.0 0.00 0.51 0.00 95 1021.5
20260510143121 54 0.0 3.0 0.00 0.51 0.00 95 1021.5
20260510143021 54 0.0 0.0 0.00 0.51 0.00 95 1021.5
20260510142921 54 0.0 0.0 0.00 0.51 0.00 95 1021.4
20260510142821 54 0.0 0.0 0.00 0.51 0.00 95 1021.4
20260510142721 54 0.0 0.0 0.00 0.51 0.00 95 1021.5
20260510142621 54 0.0 0.0 0.00 0.51 0.00 95 1021.5
20260510142541 54 0.0 1.0 0.00 0.51 0.00 95 1021.5
20260510142421 54 113 1.0 2.0 0.00 0.51 0.00 95 1021.5
20260510142321 54 0.0 0.0 0.00 0.51 0.00 95 1021.5
20260510142221 54 113 1.0 2.0 0.00 0.51 0.00 95 1021.5
20260510142122 54 113 1.0 2.0 0.00 0.51 0.00 95 1021.4
20260510142021 54 113 2.0 3.0 0.00 0.51 0.00 96 1021.4
20260510141922 54 0.0 1.0 0.00 0.51 0.00 95 1021.5
20260510141822 53 0.0 0.0 0.00 0.51 0.00 95 1021.5
20260510141721 53 0.0 0.0 0.00 0.51 0.00 95 1021.5
20260510141620 53 0.0 0.0 0.00 0.51 0.00 95 1021.5
20260510141520 53 0.0 0.0 0.00 0.51 0.00 95 1021.5
20260510141421 53 0.0 0.0 0.00 0.51 0.00 95 1021.4
20260510141321 53 113 1.0 2.0 0.00 0.51 0.00 95 1021.4
20260510141221 53 0.0 1.0 0.00 0.51 0.00 95 1021.4
20260510141141 53 0.0 0.0 0.00 0.51 0.00 95 1021.4
20260510141101 53 0.0 0.0 0.00 0.51 0.00 95 1021.4
20260510140922 53 0.0 0.0 0.00 0.51 0.00 95 1021.4
20260510140821 53 0.0 0.0 0.00 0.51 0.00 95 1021.5
20260510140721 53 0.0 1.0 0.00 0.51 0.00 95 1021.5
20260510140621 53 0.0 1.0 0.00 0.51 0.00 95 1021.5
20260510140522 53 0.0 1.0 0.00 0.51 0.00 95 1021.6
20260510140421 53 0.0 1.0 0.00 0.51 0.00 95 1021.6
20260510140321 53 0.0 1.0 0.00 0.51 0.00 95 1021.6
20260510140221 53 0.0 0.0 0.00 0.51 0.00 95 1021.6
20260510140121 53 0.0 0.0 0.00 0.51 0.00 95 1021.6
20260510140041 53 113 1.0 2.0 0.00 0.51 0.00 95 1021.6
20260510135922 53 113 1.0 2.0 0.00 0.51 0.00 95 1021.6
20260510135822 53 0.0 0.0 0.00 0.51 0.00 95 1021.6
20260510135724 53 0.0 0.0 0.00 0.51 0.00 95 1021.7
20260510135622 53 0.0 0.0 0.00 0.51 0.00 95 1021.7
20260510135543 53 0.0 0.0 0.00 0.51 0.00 95 1021.6
20260510135422 53 0.0 0.0 0.00 0.51 0.00 95 1021.6
20260510135321 53 0.0 1.0 0.00 0.51 0.00 95 1021.6
20260510135221 53 0.0 1.0 0.00 0.51 0.00 95 1021.5
20260510135121 53 0.0 0.0 0.00 0.51 0.00 95 1021.4
20260510135022 53 0.0 0.0 0.00 0.51 0.00 95 1021.5
20260510134921 53 0.0 0.0 0.00 0.51 0.00 95 1021.5
20260510134821 53 0.0 0.0 0.00 0.51 0.00 95 1021.5
20260510134720 53 0.0 0.0 0.00 0.51 0.00 95 1021.4
20260510134621 53 0.0 0.0 0.00 0.51 0.00 95 1021.4
20260510134521 53 0.0 0.0 0.00 0.51 0.00 95 1021.4
20260510134422 53 0.0 1.0 0.00 0.51 0.00 95 1021.4
20260510134321 53 0.0 1.0 0.00 0.51 0.00 95 1021.4
20260510134224 53 113 1.0 2.0 0.00 0.51 0.00 95 1021.4
20260510134122 53 0.0 1.0 0.00 0.51 0.00 95 1021.4
20260510134021 53 0.0 1.0 0.00 0.51 0.00 95 1021.4
20260510133921 53 113 1.0 2.0 0.00 0.51 0.00 95 1021.4
20260510133821 53 0.0 1.0 0.00 0.51 0.00 95 1021.4
20260510133721 53 113 1.0 2.0 0.00 0.51 0.00 95 1021.4
20260510133621 53 113 1.0 2.0 0.00 0.51 0.00 95 1021.4
20260510133522 53 113 1.0 2.0 0.00 0.51 0.00 95 1021.4
20260510133420 53 113 2.0 3.0 0.00 0.51 0.00 95 1021.3
20260510133321 53 113 2.0 4.0 0.00 0.51 0.00 95 1021.3
20260510133222 53 113 3.0 4.0 0.00 0.51 0.00 95 1021.3
20260510133121 53 135 3.0 4.0 0.00 0.51 0.00 95 1021.4
20260510133041 53 135 1.0 2.0 0.00 0.51 0.00 95 1021.4
20260510132921 53 135 1.0 2.0 0.00 0.51 0.00 95 1021.4
20260510132822 53 135 1.0 2.0 0.00 0.51 0.00 95 1021.4
20260510132721 53 135 1.0 3.0 0.00 0.51 0.00 95 1021.4
20260510132621 53 135 2.0 3.0 0.00 0.51 0.00 95 1021.4
20260510132521 53 135 1.0 2.0 0.00 0.51 0.00 95 1021.4
20260510132421 53 135 1.0 2.0 0.00 0.51 0.00 95 1021.4
20260510132321 53 135 1.0 2.0 0.00 0.51 0.00 95 1021.4
20260510132221 53 0.0 1.0 0.00 0.51 0.00 95 1021.5
20260510132121 53 0.0 1.0 0.00 0.51 0.00 95 1021.5
20260510132041 53 135 2.0 2.0 0.00 0.51 0.00 95 1021.5
20260510131921 53 135 1.0 2.0 0.00 0.51 0.00 96 1021.5
20260510131821 53 135 2.0 4.0 0.00 0.51 0.00 95 1021.4
20260510131721 53 203 1.0 2.0 0.00 0.51 0.00 96 1021.4
20260510131642 53 203 1.0 1.0 0.00 0.51 0.00 96 1021.4
20260510131521 53 203 1.0 1.0 0.00 0.51 0.00 96 1021.4
20260510131421 53 0.0 1.0 0.00 0.51 0.00 96 1021.3
20260510131321 53 0.0 1.0 0.00 0.51 0.00 96 1021.4
20260510131221 53 0.0 1.0 0.00 0.51 0.00 95 1021.4
20260510131121 53 0.0 1.0 0.00 0.51 0.00 95 1021.4
20260510131021 53 203 1.0 2.0 0.00 0.51 0.00 95 1021.4
20260510130941 53 0.0 1.0 0.00 0.51 0.00 95 1021.4
20260510130901 53 0.0 1.0 0.00 0.51 0.00 95 1021.5
20260510130741 53 113 2.0 3.0 0.00 0.51 0.00 95 1021.4
20260510130642 53 90 1.0 3.0 0.00 0.51 0.00 95 1021.4
20260510130541 53 90 3.0 4.0 0.00 0.51 0.00 95 1021.4
20260510130421 53 135 3.0 6.0 0.00 0.51 0.00 95 1021.4
20260510130321 53 135 2.0 3.0 0.00 0.51 0.00 95 1021.3
20260510130221 53 135 1.0 2.0 0.00 0.51 0.00 95 1021.4
20260510130121 53 135 1.0 2.0 0.00 0.51 0.00 96 1021.3
20260510130021 53 135 1.0 2.0 0.00 0.51 0.00 96 1021.3
20260510125923 53 135 1.0 2.0 0.00 0.51 0.00 96 1021.3
20260510125823 53 0.0 1.0 0.00 0.51 0.00 96 1021.2
20260510125722 53 135 1.0 3.0 0.00 0.51 0.00 96 1021.2
20260510125622 53 90 2.0 3.0 0.00 0.51 0.00 96 1021.2
20260510125522 53 113 1.0 4.0 0.00 0.51 0.00 96 1021.3
20260510125421 53 113 2.0 4.0 0.00 0.51 0.00 96 1021.3
20260510125321 53 90 2.0 3.0 0.00 0.51 0.00 96 1021.3
20260510125221 53 113 3.0 4.0 0.00 0.51 0.00 96 1021.3
20260510125141 53 113 2.0 3.0 0.00 0.51 0.00 96 1021.3
20260510125022 53 113 1.0 2.0 0.00 0.51 0.00 96 1021.3
20260510124921 53 113 2.0 2.0 0.00 0.51 0.00 96 1021.2
20260510124841 53 90 2.0 4.0 0.00 0.51 0.00 96 1021.1
20260510124721 53 90 2.0 3.0 0.00 0.51 0.00 96 1021.1
20260510124621 53 113 2.0 3.0 0.00 0.51 0.00 96 1021.1
20260510124521 53 90 2.0 3.0 0.00 0.51 0.00 96 1021.1
20260510124441 53 90 1.0 2.0 0.00 0.51 0.00 96 1021.1
20260510124321 53 90 2.0 3.0 0.00 0.51 0.00 96 1021.1
20260510124221 53 90 3.0 3.0 0.00 0.51 0.00 96 1021.2
20260510124122 53 90 3.0 4.0 0.00 0.51 0.00 96 1021.2
20260510124022 53 90 2.0 3.0 0.00 0.51 0.00 96 1021.2
20260510123940 53 0.0 0.0 0.00 0.51 0.00 96 1021.2
20260510123821 53 0.0 0.0 0.00 0.51 0.00 96 1021.2
20260510123720 53 0.0 0.0 0.00 0.51 0.00 96 1021.2
20260510123621 53 0.0 0.0 0.00 0.51 0.00 96 1021.2
20260510123521 53 0.0 0.0 0.00 0.51 0.00 96 1021.2
20260510123441 53 0.0 0.0 0.00 0.51 0.00 96 1021.2
20260510123320 53 0.0 0.0 0.00 0.51 0.00 96 1021.2
20260510123242 53 0.0 0.0 0.00 0.51 0.00 96 1021.1
20260510123121 53 0.0 0.0 0.00 0.51 0.00 96 1021.0
20260510123020 53 0.0 0.0 0.00 0.51 0.00 96 1021.0
20260510122920 53 0.0 1.0 0.00 0.51 0.00 95 1020.9
20260510122821 53 90 2.0 4.0 0.00 0.51 0.00 96 1020.9
20260510122720 53 90 1.0 4.0 0.00 0.51 0.00 96 1020.8
20260510122621 53 90 1.0 2.0 0.00 0.51 0.00 96 1020.8
20260510122521 53 0.0 2.0 0.00 0.51 0.00 96 1020.7
20260510122421 53 0.0 0.0 0.00 0.51 0.00 96 1020.7
20260510122341 53 90 1.0 2.0 0.00 0.51 0.00 96 1020.7
20260510122221 53 90 1.0 3.0 0.00 0.51 0.00 96 1020.6
20260510122121 53 90 4.0 5.0 0.00 0.51 0.00 96 1020.6
20260510122021 53 90 2.0 3.0 0.00 0.51 0.00 96 1020.6
20260510121921 53 90 2.0 3.0 0.00 0.51 0.00 96 1020.6
20260510121841 53 90 1.0 2.0 0.00 0.51 0.00 96 1020.6
20260510121741 53 98 1.0 0.0 0.00 0.51 0.00 96 1020.7
20260510121625 53 98 1.0 0.0 0.00 0.51 0.00 96 1020.7
20260510121523 53 98 1.0 0.0 0.00 0.51 0.00 96 1020.7
20260510121423 53 98 1.0 0.0 0.00 0.51 0.00 96 1020.8
20260510121340 53 90 1.0 2.0 0.00 0.51 0.00 96 1020.7
20260510121223 53 90 1.0 2.0 0.00 0.51 0.00 96 1020.7
20260510121123 53 0.0 1.0 0.00 0.51 0.00 96 1020.7
20260510121024 53 0.0 1.0 0.00 0.51 0.00 96 1020.7
20260510120923 53 90 2.0 4.0 0.00 0.51 0.00 96 1020.7
20260510120822 53 68 2.0 4.0 0.00 0.51 0.00 96 1020.7
20260510120742 53 68 2.0 3.0 0.00 0.51 0.00 96 1020.7
20260510120643 53 68 3.0 4.0 0.00 0.51 0.00 96 1020.7
20260510120521 53 113 3.0 4.0 0.00 0.51 0.00 96 1020.7
20260510120422 53 113 3.0 7.0 0.00 0.51 0.00 96 1020.7
20260510120321 53 90 4.0 7.0 0.00 0.51 0.00 96 1020.7
20260510120221 53 113 1.0 2.0 0.00 0.51 0.00 97 1020.7
20260510120123 53 113 1.0 2.0 0.00 0.51 0.00 97 1020.7
20260510120043 53 0.0 1.0 0.00 0.51 0.00 97 1020.7
20260510115923 53 0.0 2.0 0.00 0.51 0.00 97 1020.8
20260510115823 53 0.0 2.0 0.00 0.51 0.00 97 1020.7
20260510115721 53 113 1.0 2.0 0.00 0.51 0.00 97 1020.7
20260510115641 53 0.0 1.0 0.00 0.51 0.00 97 1020.7
20260510115521 53 0.0 0.0 0.00 0.51 0.00 96 1020.7
20260510115421 53 0.0 1.0 0.00 0.51 0.00 96 1020.8
20260510115321 53 0.0 2.0 0.00 0.51 0.00 96 1020.7
20260510115301 53 0.0 1.0 0.00 0.51 0.00 96 1020.7
20260510115121 53 0.0 0.0 0.00 0.51 0.00 96 1020.6
20260510115040 53 113 1.0 2.0 0.00 0.51 0.00 96 1020.6
20260510114921 53 0.0 2.0 0.00 0.51 0.00 96 1020.6
20260510114822 53 0.0 1.0 0.00 0.51 0.00 96 1020.5
20260510114722 53 113 1.0 6.0 0.00 0.51 0.00 96 1020.6
20260510114623 53 113 2.0 6.0 0.00 0.51 0.00 96 1020.5
20260510114521 53 135 1.0 3.0 0.00 0.51 0.00 96 1020.4
20260510114442 53 135 2.0 2.0 0.00 0.51 0.00 96 1020.4
20260510114321 53 135 1.0 2.0 0.00 0.51 0.00 96 1020.4
20260510114221 53 135 1.0 3.0 0.00 0.51 0.00 97 1020.4
20260510114120 53 135 2.0 2.0 0.00 0.51 0.00 97 1020.4
20260510114020 53 135 1.0 2.0 0.00 0.51 0.00 97 1020.4
20260510113923 53 135 2.0 3.0 0.00 0.51 0.00 97 1020.4
20260510113820 53 113 2.0 3.0 0.00 0.51 0.00 97 1020.4
20260510113743 53 113 1.0 2.0 0.00 0.51 0.00 97 1020.4
20260510113622 53 113 1.0 2.0 0.00 0.51 0.00 97 1020.4
20260510113543 53 113 1.0 2.0 0.00 0.51 0.00 97 1020.4
20260510113420 53 0.0 2.0 0.00 0.51 0.00 97 1020.4
20260510113321 53 0.0 0.0 0.00 0.51 0.00 97 1020.4
20260510113241 53 0.0 1.0 0.00 0.51 0.00 97 1020.3
20260510113140 53 113 1.0 3.0 0.00 0.51 0.00 97 1020.4
20260510113040 53 0.0 2.0 0.00 0.51 0.00 97 1020.3
20260510112941 53 0.0 1.0 0.00 0.51 0.00 97 1020.3
20260510112841 53 135 1.0 3.0 0.00 0.51 0.00 97 1020.3
20260510112720 53 135 1.0 2.0 0.00 0.51 0.00 97 1020.4
20260510112622 53 135 1.0 2.0 0.00 0.51 0.00 97 1020.4
20260510112522 53 135 1.0 2.0 0.00 0.51 0.00 97 1020.5
20260510112423 53 135 1.0 2.0 0.00 0.51 0.00 97 1020.4
20260510112323 53 0.0 2.0 0.00 0.51 0.00 97 1020.5
20260510112222 53 135 1.0 2.0 0.00 0.51 0.00 97 1020.5
20260510112141 53 135 2.0 3.0 0.00 0.51 0.00 97 1020.5
20260510112021 53 0.0 1.0 0.00 0.51 0.00 97 1020.5
20260510111921 53 135 1.0 2.0 0.00 0.51 0.00 97 1020.5
20260510111841 53 0.0 0.0 0.00 0.51 0.00 97 1020.5
20260510111742 53 0.0 1.0 0.00 0.51 0.00 97 1020.5
20260510111622 53 135 1.0 1.0 0.00 0.51 0.00 97 1020.5
20260510111522 53 0.0 1.0 0.00 0.51 0.00 97 1020.5
20260510111445 53 0.0 0.0 0.00 0.51 0.00 97 1020.4
20260510111325 53 135 1.0 1.0 0.00 0.51 0.00 97 1020.5
20260510111224 53 0.0 0.0 0.00 0.51 0.00 97 1020.4
20260510111123 53 0.0 1.0 0.00 0.51 0.00 97 1020.4
20260510111021 53 135 2.0 2.0 0.00 0.51 0.00 97 1020.4
20260510110921 53 135 1.0 3.0 0.00 0.51 0.00 97 1020.4
20260510110841 53 135 1.0 2.0 0.00 0.51 0.00 97 1020.5
20260510110723 53 135 1.0 2.0 0.00 0.51 0.00 97 1020.5
20260510110622 53 135 1.0 3.0 0.00 0.51 0.00 97 1020.5
20260510110523 53 0.0 1.0 0.00 0.51 0.00 97 1020.5
20260510110424 53 0.0 0.0 0.00 0.51 0.00 97 1020.5
20260510110323 53 0.0 0.0 0.00 0.51 0.00 97 1020.5
20260510110222 53 0.0 0.0 0.00 0.51 0.00 97 1020.5
20260510110124 53 135 1.0 2.0 0.00 0.51 0.00 97 1020.4
20260510110023 53 0.0 1.0 0.00 0.51 0.00 97 1020.4
20260510105921 53 135 1.0 2.0 0.00 0.51 0.00 97 1020.4
20260510105822 53 135 1.0 2.0 0.00 0.51 0.00 97 1020.3
20260510105722 53 0.0 1.0 0.00 0.51 0.00 97 1020.3
20260510105641 53 0.0 0.0 0.00 0.51 0.00 97 1020.3
20260510105522 53 0.0 1.0 0.00 0.51 0.00 97 1020.3
20260510105433 53 0.0 2.0 0.00 0.51 0.00 97 1020.2
20260510105320 53 135 2.0 3.0 0.00 0.51 0.00 97 1020.3
20260510105241 53 68 2.0 2.0 0.00 0.51 0.00 97 1020.3
20260510105122 53 45 2.0 2.0 0.00 0.51 0.00 97 1020.3
20260510105043 52 45 2.0 3.0 0.00 0.51 0.00 97 1020.3
20260510104921 52 45 1.0 2.0 0.00 0.51 0.00 97 1020.3
20260510104821 52 0.0 1.0 0.00 0.51 0.00 97 1020.3
20260510104740 52 0.0 1.0 0.00 0.51 0.00 97 1020.3
20260510104620 52 0.0 1.0 0.00 0.51 0.00 97 1020.3
20260510104521 52 0.0 0.0 0.00 0.51 0.00 97 1020.3
20260510104422 52 0.0 1.0 0.00 0.51 0.00 97 1020.3
20260510104322 52 0.0 1.0 0.00 0.51 0.00 97 1020.2
20260510104222 52 0.0 0.0 0.00 0.51 0.00 97 1020.3
20260510104122 52 0.0 0.0 0.00 0.51 0.00 97 1020.2
20260510104023 52 0.0 0.0 0.00 0.51 0.00 97 1020.1
20260510103923 52 0.0 0.0 0.00 0.51 0.00 97 1020.2
20260510103821 52 0.0 0.0 0.00 0.51 0.00 97 1020.2
20260510103723 52 0.0 0.0 0.00 0.51 0.00 97 1020.2
20260510103620 52 0.0 0.0 0.00 0.51 0.00 97 1020.2
20260510103520 52 45 1.0 2.0 0.00 0.51 0.00 97 1020.3
20260510103441 52 45 2.0 2.0 0.00 0.51 0.00 97 1020.3
20260510103323 52 45 1.0 2.0 0.00 0.51 0.00 97 1020.4
20260510103223 52 0.0 1.0 0.00 0.51 0.00 97 1020.4
20260510103123 52 0.0 1.0 0.00 0.51 0.00 97 1020.4
20260510103022 52 0.0 0.0 0.00 0.51 0.00 97 1020.5
20260510102923 51 0.0 0.0 0.00 0.51 0.00 97 1020.5
20260510102822 51 0.0 1.0 0.00 0.51 0.00 97 1020.5
20260510102722 51 45 1.0 2.0 0.00 0.51 0.00 97 1020.4
20260510102621 51 45 1.0 1.0 0.00 0.51 0.00 97 1020.4
20260510102521 51 45 1.0 2.0 0.00 0.51 0.00 97 1020.4
20260510102421 51 45 1.0 2.0 0.00 0.51 0.00 97 1020.3
20260510102322 51 0.0 1.0 0.00 0.51 0.00 97 1020.3
20260510102242 51 0.0 0.0 0.00 0.51 0.00 97 1020.2
20260510102143 51 0.0 0.0 0.00 0.51 0.00 97 1020.2
20260510102023 51 0.0 0.0 0.00 0.51 0.00 97 1020.2
20260510101922 51 0.0 0.0 0.00 0.51 0.00 97 1020.2
20260510101844 51 0.0 0.0 0.00 0.51 0.00 97 1020.3
20260510101724 51 0.0 1.0 0.00 0.51 0.00 96 1020.2
20260510101622 51 0.0 0.0 0.00 0.51 0.00 96 1020.2
20260510101542 51 0.0 0.0 0.00 0.51 0.00 96 1020.1
20260510101421 52 0.0 0.0 0.00 0.51 0.00 96 1020.2
20260510101320 52 0.0 1.0 0.00 0.51 0.00 96 1020.2
20260510101223 52 0.0 0.0 0.00 0.51 0.00 96 1020.2
20260510101122 52 0.0 0.0 0.00 0.51 0.00 96 1020.2
20260510101024 52 0.0 0.0 0.00 0.51 0.00 96 1020.2
20260510100941 52 0.0 0.0 0.00 0.51 0.00 96 1020.2
20260510100823 52 0.0 0.0 0.00 0.51 0.00 96 1020.2
20260510100722 52 0.0 0.0 0.00 0.51 0.00 96 1020.2
20260510100622 52 0.0 0.0 0.00 0.51 0.00 96 1020.1
20260510100522 52 0.0 0.0 0.00 0.51 0.00 97 1020.1
20260510100422 52 45 1.0 2.0 0.00 0.51 0.00 97 1020.1
20260510100343 52 45 1.0 2.0 0.00 0.51 0.00 97 1020.1
20260510100244 52 0.0 0.0 0.00 0.51 0.00 97 1020.2
20260510100022 52 0.0 0.0 0.00 0.51 0.00 97 1020.3
20260510095943 52 0.0 0.0 0.00 0.51 0.00 97 1020.3
20260510095823 52 0.0 0.0 0.00 0.51 0.00 97 1020.3
20260510095722 52 0.0 0.0 0.00 0.51 0.00 97 1020.3
20260510095623 52 0.0 1.0 0.00 0.51 0.00 97 1020.3
20260510095524 52 0.0 1.0 0.00 0.51 0.00 97 1020.3
20260510095422 52 0.0 0.0 0.00 0.51 0.00 97 1020.3
20260510095322 52 0.0 0.0 0.00 0.51 0.00 97 1020.3
20260510095222 52 0.0 0.0 0.00 0.51 0.00 97 1020.3
20260510095123 52 0.0 0.0 0.00 0.51 0.00 97 1020.3
20260510095023 52 0.0 0.0 0.00 0.51 0.00 97 1020.3
20260510094922 52 0.0 0.0 0.00 0.51 0.00 97 1020.4
20260510094822 52 0.0 0.0 0.00 0.51 0.00 97 1020.3
20260510094722 52 0.0 0.0 0.00 0.51 0.00 97 1020.4
20260510094622 52 0.0 0.0 0.00 0.51 0.00 97 1020.4
20260510094522 52 0.0 0.0 0.00 0.51 0.00 97 1020.4
20260510094422 52 0.0 0.0 0.00 0.51 0.00 97 1020.4
20260510094322 52 0.0 0.0 0.00 0.51 0.00 97 1020.4
20260510094222 52 0.0 0.0 0.00 0.51 0.00 97 1020.5
20260510094122 52 0.0 0.0 0.00 0.51 0.00 97 1020.5
20260510094022 52 0.0 0.0 0.00 0.51 0.00 97 1020.4
20260510093922 52 0.0 0.0 0.00 0.51 0.00 97 1020.4
20260510093822 52 0.0 0.0 0.00 0.51 0.00 97 1020.4
20260510093722 52 0.0 0.0 0.00 0.51 0.00 97 1020.4
20260510093622 52 0.0 0.0 0.00 0.51 0.00 97 1020.4
20260510093522 52 0.0 0.0 0.00 0.51 0.00 97 1020.5
20260510093422 52 0.0 0.0 0.00 0.51 0.00 97 1020.5
20260510093322 52 0.0 0.0 0.00 0.51 0.00 97 1020.5
20260510093222 52 0.0 0.0 0.00 0.51 0.00 97 1020.5
20260510093122 52 0.0 0.0 0.00 0.51 0.00 97 1020.5
20260510093022 52 0.0 0.0 0.00 0.51 0.00 97 1020.5
20260510092924 52 0.0 0.0 0.00 0.51 0.00 97 1020.5
20260510092825 52 0.0 0.0 0.00 0.51 0.00 97 1020.5
20260510092724 52 0.0 0.0 0.00 0.51 0.00 97 1020.5
20260510092625 52 0.0 0.0 0.00 0.51 0.00 97 1020.5
20260510092536 52 0.0 0.0 0.00 0.51 0.00 97 1020.5
20260510092422 52 0.0 0.0 0.00 0.51 0.00 97 1020.5
20260510092404 52 0.0 0.0 0.00 0.51 0.00 97 1020.5
20260510092243 52 0.0 0.0 0.00 0.51 0.00 97 1020.5
20260510092122 52 0.0 0.0 0.00 0.51 0.00 97 1020.6
20260510092022 52 0.0 0.0 0.00 0.51 0.00 97 1020.6
20260510091923 52 0.0 0.0 0.00 0.51 0.00 97 1020.5
20260510091843 52 0.0 0.0 0.00 0.51 0.00 97 1020.5
20260510091723 52 0.0 0.0 0.00 0.51 0.00 97 1020.5
20260510091622 52 0.0 1.0 0.00 0.51 0.00 97 1020.5
20260510091522 52 0.0 0.0 0.00 0.51 0.00 97 1020.5
20260510091423 52 0.0 0.0 0.00 0.51 0.00 97 1020.5
20260510091323 52 0.0 0.0 0.00 0.51 0.00 97 1020.5
20260510091222 52 0.0 0.0 0.00 0.51 0.00 97 1020.4
20260510091122 52 0.0 0.0 0.00 0.51 0.00 97 1020.5
20260510091022 52 0.0 0.0 0.00 0.51 0.00 97 1020.5
20260510090922 52 0.0 0.0 0.00 0.51 0.00 97 1020.5
20260510090822 52 0.0 1.0 0.00 0.51 0.00 97 1020.5
20260510090722 52 0.0 0.0 0.00 0.51 0.00 97 1020.5
20260510090622 52 0.0 0.0 0.00 0.51 0.00 97 1020.5
20260510090522 52 0.0 0.0 0.00 0.51 0.00 97 1020.5
20260510090420 52 0.0 0.0 0.00 0.51 0.00 97 1020.5
20260510090322 52 45 1.0 2.0 0.00 0.51 0.00 97 1020.6
20260510090222 52 45 1.0 2.0 0.00 0.51 0.00 97 1020.5
20260510090143 52 0.0 0.0 0.00 0.51 0.00 97 1020.6
20260510090022 52 0.0 0.0 0.00 0.51 0.00 97 1020.5
20260510085922 52 0.0 0.0 0.00 0.51 0.00 97 1020.5
20260510085822 52 0.0 0.0 0.00 0.51 0.00 97 1020.5
20260510085722 52 0.0 0.0 0.00 0.51 0.00 97 1020.5
20260510085623 52 0.0 0.0 0.00 0.51 0.00 97 1020.5
20260510085523 52 0.0 0.0 0.00 0.51 0.00 97 1020.5
20260510085422 52 0.0 0.0 0.00 0.51 0.00 97 1020.5
20260510085323 52 0.0 0.0 0.00 0.51 0.00 97 1020.5
20260510085222 52 0.0 1.0 0.00 0.51 0.00 97 1020.6
20260510085123 52 0.0 1.0 0.00 0.51 0.00 97 1020.6
20260510085022 52 0.0 1.0 0.00 0.51 0.00 97 1020.5
20260510084922 52 0.0 0.0 0.00 0.51 0.00 97 1020.5
20260510084822 52 0.0 0.0 0.00 0.51 0.00 97 1020.5
20260510084722 52 0.0 0.0 0.00 0.51 0.00 97 1020.5
20260510084623 52 0.0 0.0 0.00 0.51 0.00 97 1020.6
20260510084523 52 0.0 0.0 0.00 0.51 0.00 97 1020.6
20260510084422 52 0.0 1.0 0.00 0.51 0.00 97 1020.6
20260510084323 52 45 1.0 2.0 0.00 0.51 0.00 97 1020.6
20260510084223 52 45 2.0 3.0 0.00 0.51 0.00 97 1020.6
20260510084122 52 45 2.0 2.0 0.00 0.51 0.00 97 1020.5
20260510084023 52 45 1.0 2.0 0.00 0.51 0.00 97 1020.4
20260510083943 52 0.0 0.0 0.00 0.51 0.00 97 1020.4
20260510083842 52 0.0 1.0 0.00 0.51 0.00 97 1020.4
20260510083722 52 0.0 1.0 0.00 0.51 0.00 97 1020.4
20260510083622 52 0.0 1.0 0.00 0.51 0.00 97 1020.4
20260510083522 52 45 1.0 2.0 0.00 0.51 0.00 97 1020.5
20260510083442 52 45 1.0 3.0 0.00 0.51 0.00 97 1020.5
20260510083342 52 45 1.0 3.0 0.00 0.51 0.00 97 1020.5
20260510083224 52 45 2.0 3.0 0.00 0.51 0.00 97 1020.4
20260510083123 52 0.0 0.0 0.00 0.51 0.00 97 1020.3
20260510083024 52 0.0 0.0 0.00 0.51 0.00 97 1020.3
20260510082924 52 0.0 0.0 0.00 0.51 0.00 97 1020.2
20260510082902 52 0.0 0.0 0.00 0.51 0.00 97 1020.1
20260510082743 52 0.0 0.0 0.00 0.51 0.00 97 1020.0
20260510082622 52 0.0 0.0 0.00 0.51 0.00 97 1020.0
20260510082522 52 0.0 0.0 0.00 0.51 0.00 97 1019.9
20260510082422 52 0.0 0.0 0.00 0.51 0.00 97 1019.9
20260510082322 52 0.0 0.0 0.00 0.51 0.00 97 1019.9
20260510082222 52 0.0 0.0 0.00 0.51 0.00 97 1019.9
20260510082123 52 0.0 0.0 0.00 0.51 0.00 97 1019.8
20260510082042 52 0.0 0.0 0.00 0.51 0.00 97 1019.8
20260510081922 52 0.0 0.0 0.00 0.51 0.00 97 1019.8
20260510081822 52 0.0 0.0 0.00 0.51 0.00 97 1019.8
20260510081722 52 0.0 0.0 0.00 0.51 0.00 97 1019.8
20260510081623 52 0.0 0.0 0.00 0.51 0.00 97 1019.8
20260510081442 52 0.0 0.0 0.00 0.51 0.00 97 1019.7
20260510081322 52 0.0 0.0 0.00 0.51 0.00 97 1019.7
20260510081242 52 0.0 0.0 0.00 0.51 0.00 97 1019.7
20260510081122 52 0.0 0.0 0.00 0.51 0.00 97 1019.7
20260510081022 52 0.0 0.0 0.00 0.51 0.00 97 1019.7
20260510080922 52 0.0 0.0 0.00 0.51 0.00 97 1019.7
20260510080822 52 0.0 0.0 0.00 0.51 0.00 97 1019.7
20260510080722 52 0.0 0.0 0.00 0.51 0.00 97 1019.7
20260510080622 52 0.0 0.0 0.00 0.51 0.00 97 1019.6
20260510080522 52 0.0 0.0 0.00 0.51 0.00 97 1019.6
20260510080422 52 0.0 0.0 0.00 0.51 0.00 97 1019.6
20260510080322 52 0.0 0.0 0.00 0.51 0.00 97 1019.6
20260510080222 52 0.0 0.0 0.00 0.51 0.00 97 1019.6
20260510080122 52 0.0 0.0 0.00 0.51 0.00 97 1019.6
20260510080024 52 0.0 0.0 0.00 0.51 0.00 97 1019.6
20260510075923 52 0.0 0.0 0.00 0.51 0.00 97 1019.6
20260510075843 52 0.0 0.0 0.00 0.51 0.00 97 1019.5
20260510075722 52 0.0 0.0 0.00 0.51 0.00 97 1019.5
20260510075623 52 0.0 0.0 0.00 0.51 0.00 97 1019.5
20260510075523 52 0.0 0.0 0.00 0.51 0.00 97 1019.5
20260510075422 52 0.0 0.0 0.00 0.51 0.00 97 1019.6
20260510075322 52 0.0 0.0 0.00 0.51 0.00 97 1019.5
20260510075222 52 0.0 0.0 0.00 0.51 0.00 97 1019.6
20260510075122 52 0.0 0.0 0.00 0.51 0.00 97 1019.6
20260510075022 52 0.0 0.0 0.00 0.51 0.00 97 1019.6
20260510074922 52 0.0 0.0 0.00 0.51 0.00 97 1019.6
20260510074842 52 0.0 0.0 0.00 0.51 0.00 97 1019.6
20260510074722 52 0.0 0.0 0.00 0.51 0.00 97 1019.6
20260510074622 52 0.0 0.0 0.00 0.51 0.00 97 1019.7
20260510074522 52 0.0 0.0 0.00 0.51 0.00 97 1019.7
20260510074426 52 0.0 0.0 0.00 0.51 0.00 97 1019.8
20260510074324 52 0.0 0.0 0.00 0.51 0.00 97 1019.7
20260510074224 52 0.0 0.0 0.00 0.51 0.00 97 1019.7
20260510074144 52 0.0 0.0 0.00 0.51 0.00 97 1019.7
20260510074022 52 0.0 0.0 0.00 0.51 0.00 97 1019.7
20260510073922 52 0.0 0.0 0.00 0.51 0.00 97 1019.7
20260510073822 52 0.0 0.0 0.00 0.51 0.00 97 1019.7
20260510073722 52 0.0 0.0 0.00 0.51 0.00 97 1019.7
20260510073642 52 0.0 0.0 0.00 0.51 0.00 97 1019.7
20260510073541 52 0.0 0.0 0.00 0.51 0.00 97 1019.7
20260510073422 52 0.0 0.0 0.00 0.51 0.00 97 1019.7
20260510073324 52 0.0 0.0 0.00 0.51 0.00 97 1019.7
20260510073242 52 0.0 0.0 0.00 0.51 0.00 97 1019.7
20260510073122 52 0.0 0.0 0.00 0.51 0.00 97 1019.8
20260510073022 52 0.0 0.0 0.00 0.51 0.00 97 1019.7
20260510072942 52 0.0 0.0 0.00 0.51 0.00 97 1019.7
20260510072822 52 0.0 0.0 0.00 0.51 0.00 97 1019.7
20260510072722 52 0.0 0.0 0.00 0.51 0.00 97 1019.7
20260510072623 52 0.0 0.0 0.00 0.51 0.00 97 1019.7
20260510072523 52 0.0 0.0 0.00 0.51 0.00 97 1019.8
20260510072423 52 0.0 0.0 0.00 0.51 0.00 97 1019.7
20260510072322 52 0.0 0.0 0.00 0.51 0.00 97 1019.8
20260510072242 52 0.0 0.0 0.00 0.51 0.00 97 1019.7
20260510072122 52 0.0 0.0 0.00 0.51 0.00 97 1019.7
20260510072022 52 0.0 0.0 0.00 0.51 0.00 97 1019.8
20260510071923 52 0.0 0.0 0.00 0.51 0.00 97 1019.7
20260510071722 52 0.0 0.0 0.00 0.51 0.00 97 1019.7
20260510071623 52 0.0 0.0 0.00 0.51 0.00 97 1019.7
20260510071522 52 0.0 0.0 0.00 0.51 0.00 97 1019.7
20260510071422 52 0.0 0.0 0.00 0.51 0.00 97 1019.7
20260510071322 52 0.0 0.0 0.00 0.51 0.00 97 1019.6
20260510071222 52 0.0 0.0 0.00 0.51 0.00 97 1019.6
20260510071143 52 0.0 0.0 0.00 0.51 0.00 97 1019.7
20260510071022 52 0.0 0.0 0.00 0.51 0.00 97 1019.7
20260510070922 52 0.0 0.0 0.00 0.51 0.00 97 1019.7
20260510070822 52 0.0 0.0 0.00 0.51 0.00 97 1019.7
20260510070722 52 0.0 0.0 0.00 0.51 0.00 97 1019.7
20260510070642 52 0.0 0.0 0.00 0.51 0.00 97 1019.7
20260510070522 52 0.0 0.0 0.00 0.51 0.00 97 1019.6
20260510070422 52 0.0 0.0 0.00 0.51 0.00 97 1019.6
20260510070322 52 0.0 0.0 0.00 0.51 0.00 97 1019.7
20260510070222 52 0.0 0.0 0.00 0.51 0.00 97 1019.6
20260510070121 52 0.0 0.0 0.00 0.51 0.00 97 1019.7
20260510070023 52 0.0 0.0 0.00 0.51 0.00 97 1019.7
20260510065922 52 0.0 0.0 0.00 0.51 0.00 97 1019.7
20260510065842 52 0.0 0.0 0.00 0.51 0.00 97 1019.7
20260510065723 52 0.0 0.0 0.00 0.51 0.00 97 1019.7
20260510065642 52 0.0 0.0 0.00 0.51 0.00 97 1019.7
20260510065522 52 0.0 0.0 0.00 0.51 0.00 97 1019.8
20260510065423 52 0.0 0.0 0.00 0.51 0.00 97 1019.8
20260510065323 52 0.0 0.0 0.00 0.51 0.00 97 1019.8
20260510065243 52 0.0 0.0 0.00 0.51 0.00 97 1019.7
20260510065122 52 0.0 0.0 0.00 0.51 0.00 97 1019.7
20260510065021 52 0.0 0.0 0.00 0.51 0.00 97 1019.7
20260510064925 52 0.0 0.0 0.00 0.51 0.00 97 1019.7
20260510064822 52 0.0 0.0 0.00 0.51 0.00 97 1019.8
20260510064734 52 0.0 0.0 0.00 0.51 0.00 97 1019.7
20260510064623 52 0.0 0.0 0.00 0.51 0.00 97 1019.7
20260510064542 52 0.0 0.0 0.00 0.51 0.00 97 1019.7
20260510064442 52 0.0 0.0 0.00 0.51 0.00 97 1019.7
20260510064324 52 0.0 0.0 0.00 0.51 0.00 97 1019.7
20260510064243 52 0.0 0.0 0.00 0.51 0.00 97 1019.7
20260510064123 52 0.0 0.0 0.00 0.51 0.00 96 1019.7
20260510064023 52 0.0 0.0 0.00 0.51 0.00 96 1019.6
20260510063921 52 0.0 0.0 0.00 0.51 0.00 97 1019.6
20260510063822 52 0.0 0.0 0.00 0.51 0.00 97 1019.6
20260510063722 52 0.0 0.0 0.00 0.51 0.00 97 1019.7
20260510063622 52 0.0 0.0 0.00 0.51 0.00 97 1019.7
20260510063602 52 0.0 0.0 0.00 0.51 0.00 97 1019.7
20260510063423 52 0.0 0.0 0.00 0.51 0.00 97 1019.6
20260510063322 52 0.0 0.0 0.00 0.51 0.00 97 1019.6
20260510063222 52 0.0 0.0 0.00 0.51 0.00 97 1019.6
20260510063122 52 0.0 0.0 0.00 0.51 0.00 97 1019.6
20260510063023 52 0.0 0.0 0.00 0.51 0.00 97 1019.6
20260510062922 52 0.0 0.0 0.00 0.51 0.00 97 1019.6
20260510062821 52 0.0 0.0 0.00 0.51 0.00 97 1019.5
20260510062722 52 0.0 0.0 0.00 0.51 0.00 97 1019.4
20260510062623 52 0.0 1.0 0.00 0.51 0.00 97 1019.5
20260510062602 52 68 1.0 1.0 0.00 0.51 0.00 97 1019.4
20260510062422 52 0.0 1.0 0.00 0.51 0.00 97 1019.4
20260510062342 52 68 1.0 2.0 0.00 0.51 0.00 97 1019.4
20260510062223 52 0.0 1.0 0.00 0.51 0.00 97 1019.4
20260510062143 52 0.0 0.0 0.00 0.51 0.00 97 1019.4
20260510062022 52 0.0 0.0 0.00 0.51 0.00 97 1019.5
20260510061923 52 0.0 0.0 0.00 0.51 0.00 97 1019.5
20260510061821 52 0.0 0.0 0.00 0.51 0.00 97 1019.5
20260510061722 52 0.0 0.0 0.00 0.51 0.00 97 1019.4
20260510061622 52 0.0 0.0 0.00 0.51 0.00 97 1019.4
20260510061522 52 0.0 0.0 0.00 0.51 0.00 97 1019.4
20260510061422 52 0.0 0.0 0.00 0.51 0.00 97 1019.4
20260510061322 52 0.0 0.0 0.00 0.51 0.00 97 1019.4
20260510061222 52 0.0 0.0 0.00 0.51 0.00 97 1019.4
20260510061202 52 0.0 0.0 0.00 0.51 0.00 97 1019.4
20260510061042 52 0.0 0.0 0.00 0.51 0.00 97 1019.5
20260510060922 52 0.0 0.0 0.00 0.51 0.00 97 1019.4
20260510060822 52 0.0 0.0 0.00 0.51 0.00 97 1019.5
20260510060721 52 0.0 0.0 0.00 0.51 0.00 97 1019.4
20260510060622 52 0.0 0.0 0.00 0.51 0.00 97 1019.4
20260510060522 52 0.0 0.0 0.00 0.51 0.00 97 1019.4
20260510060443 52 0.0 0.0 0.00 0.51 0.00 97 1019.4
20260510060322 52 0.0 0.0 0.00 0.51 0.00 97 1019.3
20260510060222 52 0.0 0.0 0.00 0.51 0.00 97 1019.4
20260510060204 52 0.0 0.0 0.00 0.51 0.00 97 1019.4
20260510060023 52 0.0 0.0 0.00 0.51 0.00 97 1019.4
20260510055924 52 0.0 0.0 0.00 0.51 0.00 97 1019.5
20260510055844 52 0.0 0.0 0.00 0.51 0.00 97 1019.5
20260510055743 52 0.0 0.0 0.00 0.51 0.00 97 1019.5
20260510055624 52 0.0 0.0 0.00 0.51 0.00 97 1019.5
20260510055522 52 0.0 0.0 0.00 0.51 0.00 96 1019.5
20260510055423 52 0.0 0.0 0.00 0.51 0.00 96 1019.5
20260510055322 52 0.0 0.0 0.00 0.51 0.00 96 1019.5
20260510055243 52 0.0 0.0 0.00 0.51 0.00 96 1019.5
20260510055123 52 0.0 0.0 0.00 0.51 0.00 96 1019.6
20260510055022 52 0.0 0.0 0.00 0.51 0.00 96 1019.6
20260510054923 52 0.0 0.0 0.00 0.51 0.00 96 1019.6
20260510054822 52 0.0 0.0 0.00 0.51 0.00 96 1019.6
20260510054722 52 0.0 0.0 0.00 0.51 0.00 96 1019.6
20260510054632 52 0.0 1.0 0.00 0.51 0.00 96 1019.6
20260510054342 52 0.0 0.0 0.00 0.51 0.00 96 1019.6
20260510054222 52 0.0 0.0 0.00 0.51 0.00 96 1019.6
20260510054122 52 0.0 0.0 0.00 0.51 0.00 96 1019.6
20260510054042 52 0.0 0.0 0.00 0.51 0.00 96 1019.6
20260510053922 52 0.0 0.0 0.00 0.51 0.00 96 1019.7
20260510053822 52 0.0 0.0 0.00 0.51 0.00 96 1019.6
20260510053743 52 0.0 1.0 0.00 0.51 0.00 97 1019.7
20260510053623 52 0.0 1.0 0.00 0.51 0.00 97 1019.7
20260510053521 53 0.0 1.0 0.00 0.51 0.00 97 1019.7
20260510053421 53 68 1.0 1.0 0.00 0.51 0.00 97 1019.7
20260510053321 53 68 1.0 2.0 0.00 0.51 0.00 97 1019.7
20260510053222 53 0.0 0.0 0.00 0.51 0.00 97 1019.7
20260510053122 53 0.0 0.0 0.00 0.51 0.00 97 1019.7
20260510053042 53 0.0 0.0 0.00 0.51 0.00 97 1019.7
20260510052921 53 0.0 0.0 0.00 0.51 0.00 97 1019.7
20260510052823 53 0.0 0.0 0.00 0.51 0.00 97 1019.7
20260510052721 53 0.0 0.0 0.00 0.51 0.00 97 1019.7
20260510052621 53 0.0 0.0 0.00 0.51 0.00 97 1019.7
20260510052522 53 0.0 0.0 0.00 0.51 0.00 97 1019.7
20260510052442 53 0.0 0.0 0.00 0.51 0.00 97 1019.7
20260510052323 53 0.0 0.0 0.00 0.51 0.00 97 1019.7
20260510052242 53 0.0 0.0 0.00 0.51 0.00 97 1019.7
20260510052122 53 0.0 0.0 0.00 0.51 0.00 97 1019.7
20260510052021 53 0.0 0.0 0.00 0.51 0.00 97 1019.7
20260510051922 53 0.0 0.0 0.00 0.51 0.00 97 1019.8
20260510051821 53 0.0 0.0 0.00 0.51 0.00 97 1019.7
20260510051722 53 0.0 0.0 0.00 0.51 0.00 97 1019.8
20260510051622 53 0.0 0.0 0.00 0.51 0.00 97 1019.8
20260510051602 53 0.0 0.0 0.00 0.51 0.00 97 1019.8
20260510051442 53 0.0 0.0 0.00 0.51 0.00 97 1019.7
20260510051322 53 0.0 0.0 0.00 0.51 0.00 97 1019.7
20260510051221 53 0.0 0.0 0.00 0.51 0.00 97 1019.7
20260510051122 53 0.0 0.0 0.00 0.51 0.00 97 1019.7
20260510051022 53 0.0 0.0 0.00 0.51 0.00 97 1019.7
20260510050921 53 0.0 0.0 0.00 0.51 0.00 97 1019.7
20260510050821 53 0.0 0.0 0.00 0.51 0.00 97 1019.7
20260510050721 53 0.0 0.0 0.00 0.51 0.00 97 1019.7
20260510050621 53 0.0 0.0 0.00 0.51 0.00 97 1019.7
20260510050522 53 0.0 0.0 0.00 0.51 0.00 97 1019.7
20260510050422 53 0.0 0.0 0.00 0.51 0.00 97 1019.8
20260510050342 53 0.0 0.0 0.00 0.51 0.00 97 1019.7
20260510050222 53 0.0 0.0 0.00 0.51 0.00 97 1019.7
20260510050122 53 0.0 0.0 0.00 0.51 0.00 97 1019.7
20260510050021 53 0.0 0.0 0.00 0.51 0.00 96 1019.7
20260510045921 53 0.0 0.0 0.00 0.51 0.00 96 1019.8
20260510045822 53 0.0 0.0 0.00 0.51 0.00 96 1019.8
20260510045722 53 0.0 0.0 0.00 0.51 0.00 96 1019.7
20260510045622 53 0.0 0.0 0.00 0.51 0.00 96 1019.7
20260510045522 53 0.0 0.0 0.00 0.51 0.00 96 1019.7
20260510045423 53 0.0 0.0 0.00 0.51 0.00 96 1019.8
20260510045322 53 0.0 0.0 0.00 0.51 0.00 96 1019.7
20260510045222 53 0.0 0.0 0.00 0.51 0.00 96 1019.7
20260510045124 53 0.0 0.0 0.00 0.51 0.00 96 1019.7
20260510045022 53 0.0 0.0 0.00 0.51 0.00 96 1019.8
20260510044922 53 0.0 0.0 0.00 0.51 0.00 97 1019.8
20260510044842 53 0.0 0.0 0.00 0.51 0.00 97 1019.8
20260510044723 53 0.0 0.0 0.00 0.51 0.00 97 1019.7
20260510044621 53 0.0 0.0 0.00 0.51 0.00 97 1019.7
20260510044522 53 0.0 0.0 0.00 0.51 0.00 97 1019.7
20260510044422 53 0.0 0.0 0.00 0.51 0.00 97 1019.7
20260510044321 53 0.0 0.0 0.00 0.51 0.00 97 1019.8
20260510044241 53 0.0 0.0 0.00 0.51 0.00 97 1019.8
20260510044142 53 0.0 0.0 0.00 0.51 0.00 97 1019.8
20260510044021 53 0.0 0.0 0.00 0.51 0.00 97 1019.7
20260510043921 53 0.0 0.0 0.00 0.51 0.00 97 1019.8
20260510043822 53 0.0 0.0 0.00 0.51 0.00 97 1019.8
20260510043721 53 0.0 0.0 0.00 0.51 0.00 97 1019.8
20260510043621 53 0.0 0.0 0.00 0.51 0.00 97 1019.8
20260510043541 53 0.0 0.0 0.00 0.51 0.00 97 1019.8
20260510043441 53 0.0 0.0 0.00 0.51 0.00 97 1019.8
20260510043321 53 0.0 0.0 0.00 0.51 0.00 97 1019.8
20260510043221 53 0.0 0.0 0.00 0.51 0.00 97 1019.7
20260510043122 53 0.0 0.0 0.00 0.51 0.00 97 1019.7
20260510043021 53 0.0 0.0 0.00 0.51 0.00 97 1019.6
20260510042922 53 0.0 0.0 0.00 0.51 0.00 97 1019.6
20260510042822 53 0.0 0.0 0.00 0.51 0.00 97 1019.5
20260510042722 53 0.0 1.0 0.00 0.51 0.00 97 1019.5
20260510042621 53 0.0 0.0 0.00 0.51 0.00 97 1019.6
20260510042521 53 0.0 0.0 0.00 0.51 0.00 97 1019.5
20260510042441 53 0.0 0.0 0.00 0.51 0.00 97 1019.5
20260510042321 53 0.0 0.0 0.00 0.51 0.00 97 1019.5
20260510042221 53 0.0 3.0 0.00 0.51 0.00 97 1019.4
20260510042142 53 68 1.0 3.0 0.00 0.51 0.00 97 1019.4
20260510042021 53 0.0 0.0 0.00 0.51 0.00 97 1019.4
20260510041922 53 0.0 0.0 0.00 0.51 0.00 97 1019.4
20260510041822 53 0.0 2.0 0.00 0.51 0.00 97 1019.3
20260510041723 53 0.0 1.0 0.00 0.51 0.00 97 1019.4
20260510041623 53 68 1.0 2.0 0.00 0.51 0.00 97 1019.4
20260510041522 53 0.0 2.0 0.00 0.51 0.00 97 1019.4
20260510041421 53 0.0 0.0 0.00 0.51 0.00 97 1019.4
20260510041323 53 0.0 0.0 0.00 0.51 0.00 97 1019.4
20260510041242 53 0.0 0.0 0.00 0.51 0.00 97 1019.5
20260510041144 53 0.0 0.0 0.00 0.51 0.00 97 1019.4
20260510041044 53 0.0 0.0 0.00 0.51 0.00 97 1019.5
20260510040921 53 0.0 0.0 0.00 0.51 0.00 97 1019.5
20260510040822 53 0.0 0.0 0.00 0.51 0.00 97 1019.4
20260510040722 53 0.0 0.0 0.00 0.51 0.00 97 1019.4
20260510040622 53 0.0 0.0 0.00 0.51 0.00 97 1019.4
20260510040522 53 0.0 0.0 0.00 0.51 0.00 97 1019.4
20260510040422 53 0.0 0.0 0.00 0.51 0.00 97 1019.4
20260510040341 53 0.0 0.0 0.00 0.51 0.00 97 1019.4
20260510040221 53 0.0 0.0 0.00 0.51 0.00 97 1019.3
20260510040122 53 0.0 0.0 0.00 0.51 0.00 96 1019.3
20260510040023 53 0.0 0.0 0.00 0.51 0.51 96 1019.3
20260510035922 53 0.0 0.0 0.00 0.51 0.51 96 1019.3
20260510035841 53 0.0 0.0 0.00 0.51 0.51 96 1019.3
20260510035721 53 0.0 0.0 0.00 0.51 0.51 96 1019.2
20260510035621 53 0.0 0.0 0.00 0.51 0.51 96 1019.3
20260510035521 53 0.0 0.0 0.00 0.51 0.51 97 1019.2
20260510035421 53 0.0 0.0 0.00 0.51 0.51 96 1019.2
20260510035321 53 0.0 0.0 0.00 0.51 0.51 97 1019.3
20260510035223 53 0.0 0.0 0.00 0.51 0.51 96 1019.3
20260510035121 53 0.0 1.0 0.00 0.51 0.51 97 1019.2
20260510035021 53 0.0 0.0 0.00 0.51 0.51 97 1019.2
20260510034922 53 0.0 1.0 0.00 0.51 0.51 97 1019.2
20260510034822 53 0.0 0.0 0.00 0.51 0.51 97 1019.3
20260510034743 53 0.0 0.0 0.00 0.51 0.51 96 1019.3
20260510034623 53 0.0 0.0 0.00 0.51 0.51 96 1019.2
20260510034521 53 0.0 0.0 0.00 0.51 0.51 96 1019.2
20260510034442 53 0.0 0.0 0.00 0.51 0.51 96 1019.3
20260510034322 53 0.0 0.0 0.00 0.51 0.51 96 1019.3
20260510034242 53 0.0 0.0 0.00 0.51 0.51 96 1019.2
20260510034121 53 0.0 0.0 0.00 0.51 0.51 97 1019.3
20260510034021 53 0.0 0.0 0.00 0.51 0.51 97 1019.3
20260510033921 53 0.0 1.0 0.00 0.51 0.51 97 1019.2
20260510033821 53 0.0 0.0 0.00 0.51 0.51 97 1019.3
20260510033721 53 0.0 0.0 0.00 0.51 0.51 96 1019.2
20260510033621 53 0.0 0.0 0.00 0.51 0.51 96 1019.2
20260510033521 53 0.0 0.0 0.00 0.51 0.51 96 1019.3
20260510033422 53 0.0 0.0 0.00 0.51 0.51 97 1019.3
20260510033322 53 0.0 0.0 0.00 0.51 0.51 96 1019.3
20260510033222 53 0.0 0.0 0.00 0.51 0.51 97 1019.2
20260510033142 53 0.0 1.0 0.00 0.51 0.51 96 1019.2
20260510033021 53 0.0 0.0 0.00 0.51 0.51 96 1019.2
20260510032921 53 0.0 1.0 0.00 0.51 0.51 96 1019.2
20260510032842 53 0.0 1.0 0.00 0.51 0.51 96 1019.2
20260510032741 53 0.0 0.0 0.00 0.51 0.51 96 1019.2
20260510032623 53 0.0 1.0 0.00 0.51 0.51 96 1019.2
20260510032521 53 68 1.0 2.0 0.00 0.51 0.51 96 1019.2
20260510032441 53 68 1.0 2.0 0.00 0.51 0.51 96 1019.2
20260510032321 53 0.0 1.0 0.00 0.51 0.51 96 1019.2
20260510032242 53 0.0 1.0 0.00 0.51 0.51 96 1019.2
20260510032121 53 0.0 0.0 0.00 0.51 0.51 96 1019.2
20260510032021 53 0.0 1.0 0.00 0.51 0.51 96 1019.2
20260510031921 53 68 1.0 2.0 0.00 0.51 0.51 96 1019.2
20260510031841 53 68 1.0 2.0 0.00 0.51 0.51 96 1019.2
20260510031722 53 68 1.0 2.0 0.00 0.51 0.51 96 1019.2
20260510031641 53 68 2.0 2.0 0.00 0.51 0.51 96 1019.3
20260510031542 53 68 1.0 2.0 0.00 0.51 0.51 96 1019.3
20260510031421 53 0.0 1.0 0.00 0.51 0.51 97 1019.3
20260510031321 53 180 1.0 1.0 0.00 0.51 0.51 96 1019.3
20260510031221 53 0.0 0.0 0.00 0.51 0.51 96 1019.4
20260510031122 53 0.0 0.0 0.00 0.51 0.51 96 1019.4
20260510031021 53 0.0 0.0 0.00 0.51 0.51 96 1019.4
20260510030921 53 0.0 0.0 0.00 0.51 0.51 96 1019.5
20260510030821 53 0.0 0.0 0.00 0.51 0.51 96 1019.5
20260510030722 53 0.0 0.0 0.00 0.51 0.51 96 1019.4
20260510030634 53 0.0 0.0 0.00 0.51 0.51 96 1019.5
20260510030421 53 0.0 0.0 0.00 0.51 0.51 96 1019.5
20260510030323 53 0.0 0.0 0.00 0.51 0.51 96 1019.5
20260510030223 53 0.0 0.0 0.00 0.51 0.51 97 1019.5
20260510030141 53 0.0 0.0 0.00 0.51 0.51 97 1019.5
20260510030042 53 0.0 0.0 0.00 0.51 0.51 97 1019.5
20260510025921 53 0.0 0.0 0.00 0.51 0.51 96 1019.5
20260510025821 53 0.0 0.0 0.00 0.51 0.51 96 1019.6
20260510025721 53 0.0 0.0 0.00 0.51 0.51 97 1019.6
20260510025621 53 0.0 0.0 0.00 0.51 0.51 97 1019.5
20260510025542 53 0.0 0.0 0.00 0.51 0.51 97 1019.5
20260510025421 53 0.0 0.0 0.00 0.51 0.51 97 1019.5
20260510025321 53 0.0 0.0 0.00 0.51 0.51 97 1019.5
20260510025223 53 0.0 0.0 0.00 0.51 0.51 97 1019.5
20260510025143 53 0.0 1.0 0.00 0.51 0.51 97 1019.4
20260510025022 53 180 1.0 1.0 0.00 0.51 0.51 97 1019.4
20260510024922 53 0.0 0.0 0.00 0.51 0.51 96 1019.4
20260510024822 53 0.0 0.0 0.00 0.51 0.51 96 1019.4
20260510024722 53 0.0 0.0 0.00 0.51 0.51 97 1019.4
20260510024621 53 0.0 0.0 0.00 0.51 0.51 96 1019.4
20260510024521 53 0.0 1.0 0.00 0.51 0.51 96 1019.4
20260510024422 53 180 1.0 2.0 0.00 0.51 0.51 96 1019.5
20260510024321 53 0.0 0.0 0.00 0.51 0.51 96 1019.5
20260510024222 53 0.0 0.0 0.00 0.51 0.51 96 1019.6
20260510024141 53 0.0 0.0 0.00 0.51 0.51 96 1019.5
20260510024021 53 0.0 0.0 0.00 0.51 0.51 96 1019.5
20260510023922 53 0.0 0.0 0.00 0.51 0.51 96 1019.6
20260510023822 53 0.0 0.0 0.00 0.51 0.51 96 1019.5
20260510023741 53 0.0 0.0 0.00 0.51 0.51 96 1019.5
20260510023621 53 0.0 0.0 0.00 0.51 0.51 97 1019.5
20260510023541 53 0.0 0.0 0.00 0.51 0.51 96 1019.5
20260510023421 53 0.0 0.0 0.00 0.51 0.51 96 1019.6
20260510023322 53 0.0 0.0 0.00 0.51 0.51 96 1019.5
20260510023221 53 0.0 0.0 0.00 0.51 0.51 96 1019.6
20260510023121 53 0.0 0.0 0.00 0.51 0.51 96 1019.6
20260510023022 53 0.0 0.0 0.00 0.51 0.51 96 1019.6
20260510022921 53 0.0 0.0 0.00 0.51 0.51 96 1019.6
20260510022823 53 0.0 0.0 0.00 0.51 0.51 96 1019.5
20260510022723 53 0.0 0.0 0.00 0.51 0.51 96 1019.5
20260510022623 53 0.0 0.0 0.00 0.51 0.51 96 1019.5
20260510022524 53 0.0 0.0 0.00 0.51 0.51 96 1019.4
20260510022422 53 0.0 0.0 0.00 0.51 0.51 96 1019.5
20260510022322 53 0.0 0.0 0.00 0.51 0.51 96 1019.4
20260510022221 53 0.0 0.0 0.00 0.51 0.51 96 1019.4
20260510022141 53 0.0 0.0 0.00 0.51 0.51 96 1019.4
20260510022021 53 0.0 0.0 0.00 0.51 0.51 96 1019.5
20260510021921 53 0.0 0.0 0.00 0.51 0.51 96 1019.5
20260510021821 53 0.0 1.0 0.00 0.51 0.51 96 1019.4
20260510021721 53 0.0 1.0 0.00 0.51 0.51 96 1019.4
20260510021622 53 0.0 0.0 0.00 0.51 0.51 96 1019.4
20260510021521 52 0.0 0.0 0.00 0.51 0.51 96 1019.4
20260510021422 53 0.0 1.0 0.00 0.51 0.51 96 1019.4
20260510021321 53 90 1.0 2.0 0.00 0.51 0.51 96 1019.4
20260510021221 52 0.0 2.0 0.00 0.51 0.51 96 1019.3
20260510021121 53 0.0 1.0 0.00 0.51 0.51 96 1019.3
20260510021041 53 0.0 0.0 0.00 0.51 0.51 96 1019.3
20260510020921 53 0.0 0.0 0.00 0.51 0.51 96 1019.2
20260510020821 53 0.0 1.0 0.00 0.51 0.51 96 1019.2
20260510020741 53 90 2.0 3.0 0.00 0.51 0.51 96 1019.2
20260510020621 53 158 2.0 4.0 0.00 0.51 0.51 96 1019.3
20260510020521 52 158 1.0 1.0 0.00 0.51 0.51 96 1019.3
20260510020421 53 0.0 1.0 0.00 0.51 0.51 96 1019.2
20260510020321 52 0.0 0.0 0.00 0.51 0.51 96 1019.3
20260510020221 53 0.0 1.0 0.00 0.51 0.51 96 1019.3
20260510020141 53 158 2.0 3.0 0.00 0.51 0.51 96 1019.3
20260510020022 53 158 2.0 4.0 0.00 0.51 0.51 96 1019.4
20260510015922 53 180 1.0 2.0 0.00 0.51 0.51 96 1019.4
20260510015821 53 0.0 2.0 0.00 0.51 0.51 96 1019.5
20260510015801 53 0.0 1.0 0.00 0.51 0.51 96 1019.6
20260510015641 53 0.0 0.0 0.00 0.51 0.51 96 1019.5
20260510015521 53 0.0 1.0 0.00 0.51 0.51 96 1019.4
20260510015441 53 0.0 0.0 0.00 0.51 0.51 96 1019.5
20260510015321 53 0.0 0.0 0.00 0.51 0.51 96 1019.4
20260510015222 53 0.0 0.0 0.00 0.51 0.51 96 1019.4
20260510015121 53 0.0 0.0 0.00 0.51 0.51 96 1019.4
20260510015041 53 0.0 0.0 0.00 0.51 0.51 96 1019.4
20260510014921 53 0.0 0.0 0.00 0.51 0.51 96 1019.4
20260510014821 53 0.0 0.0 0.00 0.51 0.51 96 1019.3
20260510014721 53 0.0 0.0 0.00 0.51 0.51 96 1019.4
20260510014621 53 0.0 0.0 0.00 0.51 0.51 96 1019.3
20260510014521 53 0.0 1.0 0.00 0.51 0.51 96 1019.3
20260510014421 53 0.0 1.0 0.00 0.51 0.51 96 1019.3
20260510014321 53 180 1.0 2.0 0.00 0.51 0.51 96 1019.3
20260510014221 53 180 1.0 2.0 0.00 0.51 0.51 96 1019.3
20260510014121 53 180 1.0 2.0 0.00 0.51 0.51 96 1019.3
20260510014021 53 180 1.0 2.0 0.00 0.51 0.51 96 1019.3
20260510013941 53 180 1.0 2.0 0.00 0.51 0.51 96 1019.3
20260510013841 53 180 2.0 3.0 0.00 0.51 0.51 96 1019.2
20260510013741 53 180 1.0 2.0 0.00 0.51 0.51 96 1019.2
20260510013621 53 180 1.0 2.0 0.00 0.51 0.51 96 1019.2
20260510013521 53 180 1.0 2.0 0.00 0.51 0.51 96 1019.2
20260510013421 53 180 1.0 1.0 0.00 0.51 0.51 96 1019.2
20260510013321 53 180 1.0 2.0 0.00 0.51 0.51 96 1019.2
20260510013221 53 180 1.0 2.0 0.00 0.51 0.51 96 1019.2
20260510013121 53 0.0 1.0 0.00 0.51 0.51 96 1019.2
20260510013021 53 0.0 1.0 0.00 0.51 0.51 96 1019.2
20260510012921 53 180 1.0 1.0 0.00 0.51 0.51 96 1019.2
20260510012821 53 0.0 1.0 0.00 0.51 0.51 96 1019.2
20260510012723 53 0.0 0.0 0.00 0.51 0.51 96 1019.2
20260510012621 53 0.0 1.0 0.00 0.51 0.51 96 1019.2
20260510012521 53 0.0 1.0 0.00 0.51 0.51 96 1019.2
20260510012422 53 180 1.0 2.0 0.00 0.51 0.51 96 1019.2
20260510012321 53 0.0 1.0 0.00 0.51 0.51 96 1019.3
20260510012221 53 0.0 0.0 0.00 0.51 0.51 96 1019.3
20260510012121 53 0.0 1.0 0.00 0.51 0.51 96 1019.3
20260510012041 53 0.0 1.0 0.00 0.51 0.51 96 1019.3
20260510011921 53 0.0 0.0 0.00 0.51 0.51 96 1019.3
20260510011821 53 0.0 0.0 0.00 0.51 0.51 96 1019.3
20260510011741 53 0.0 0.0 0.00 0.51 0.51 96 1019.2
20260510011622 53 180 1.0 2.0 0.00 0.51 0.51 96 1019.2
20260510011542 53 0.0 2.0 0.00 0.51 0.51 96 1019.2
20260510011423 53 0.0 1.0 0.00 0.51 0.51 96 1019.2
20260510011323 53 0.0 0.0 0.00 0.51 0.51 96 1019.1
20260510011221 53 0.0 0.0 0.00 0.51 0.51 96 1019.1
20260510011121 53 0.0 1.0 0.00 0.51 0.51 96 1019.1
20260510011041 53 0.0 1.0 0.00 0.51 0.51 96 1019.1
20260510010921 53 180 1.0 2.0 0.00 0.51 0.51 96 1019.1
20260510010821 53 180 1.0 2.0 0.00 0.51 0.51 96 1019.1
20260510010721 53 180 1.0 2.0 0.00 0.51 0.51 96 1019.1
20260510010621 53 180 2.0 3.0 0.00 0.51 0.51 96 1019.2
20260510010520 53 180 1.0 2.0 0.00 0.51 0.51 96 1019.2
20260510010421 53 0.0 0.0 0.00 0.51 0.51 96 1019.2
20260510010341 53 0.0 0.0 0.00 0.51 0.51 96 1019.2
20260510010221 53 0.0 0.0 0.00 0.51 0.51 96 1019.2
20260510010122 53 0.0 0.0 0.00 0.51 0.51 96 1019.2
20260510010021 53 0.0 0.0 0.00 0.51 0.51 96 1019.2
20260510005920 53 0.0 1.0 0.00 0.51 0.51 96 1019.2
20260510005821 53 180 1.0 2.0 0.00 0.51 0.51 96 1019.2
20260510005721 53 180 1.0 2.0 0.00 0.51 0.51 96 1019.2
20260510005621 53 180 1.0 2.0 0.00 0.51 0.51 96 1019.2
20260510005520 53 0.0 1.0 0.00 0.51 0.51 96 1019.2
20260510005421 53 180 1.0 2.0 0.00 0.51 0.51 96 1019.2
20260510005323 54 0.0 0.0 0.00 0.51 0.51 96 1019.1
20260510005222 54 113 1.0 2.0 0.00 0.51 0.51 96 1019.1
20260510005121 54 113 2.0 3.0 0.00 0.51 0.51 96 1019.0
20260510005021 54 113 2.0 2.0 0.00 0.51 0.51 96 1019.0
20260510004921 54 113 1.0 2.0 0.00 0.51 0.51 96 1019.0
20260510004821 54 0.0 2.0 0.00 0.51 0.51 96 1019.0
20260510004721 54 0.0 1.0 0.00 0.51 0.51 96 1019.0
20260510004621 54 0.0 2.0 0.00 0.51 0.51 96 1019.0
20260510004521 54 113 2.0 3.0 0.00 0.51 0.51 96 1019.0
20260510004421 54 113 2.0 3.0 0.00 0.51 0.51 96 1019.0
20260510004321 54 0.0 0.0 0.00 0.51 0.51 96 1019.1
20260510004223 54 0.0 0.0 0.00 0.51 0.51 96 1019.1
20260510004121 54 0.0 0.0 0.00 0.51 0.51 96 1019.1
20260510004023 54 0.0 0.0 0.00 0.51 0.51 96 1019.1
20260510003921 54 0.0 2.0 0.00 0.51 0.51 96 1019.0
20260510003821 54 113 1.0 1.0 0.00 0.51 0.51 96 1019.0
20260510003741 54 0.0 1.0 0.00 0.51 0.51 96 1019.0
20260510003622 53 0.0 0.0 0.00 0.51 0.51 96 1019.1
20260510003541 53 0.0 0.0 0.00 0.51 0.51 96 1019.0
20260510003422 54 0.0 0.0 0.00 0.51 0.51 96 1019.0
20260510003321 53 0.0 0.0 0.00 0.51 0.51 96 1018.9
20260510003221 53 0.0 1.0 0.00 0.51 0.51 96 1018.9
20260510003122 53 0.0 1.0 0.00 0.51 0.51 96 1018.9
20260510003021 53 0.0 0.0 0.00 0.51 0.51 96 1018.9
20260510002921 53 0.0 0.0 0.00 0.51 0.51 96 1018.9
20260510002841 54 0.0 0.0 0.00 0.51 0.51 96 1018.9
20260510002721 54 0.0 0.0 0.00 0.51 0.51 96 1018.9
20260510002621 53 0.0 0.0 0.00 0.51 0.51 96 1018.9
20260510002541 54 0.0 0.0 0.00 0.51 0.51 96 1018.9
20260510002421 54 0.0 0.0 0.00 0.51 0.51 96 1018.8
20260510002321 54 0.0 0.0 0.00 0.51 0.51 96 1018.9
20260510002221 54 113 1.0 2.0 0.00 0.51 0.51 96 1018.8
20260510002121 54 0.0 1.0 0.00 0.51 0.51 96 1018.8
20260510002022 54 0.0 1.0 0.01 0.51 0.51 96 1018.8
20260510001941 53 0.0 0.0 0.01 0.51 0.51 96 1018.9
20260510001821 54 0.0 0.0 0.01 0.51 0.51 96 1018.9
20260510001721 54 0.0 0.0 0.01 0.51 0.51 96 1018.9
20260510001621 54 0.0 0.0 0.01 0.51 0.51 96 1018.8
20260510001521 54 0.0 0.0 0.01 0.51 0.51 96 1018.8
20260510001421 54 0.0 0.0 0.01 0.51 0.51 96 1018.8
20260510001321 54 0.0 0.0 0.01 0.51 0.51 96 1018.8
20260510001222 54 0.0 0.0 0.01 0.51 0.51 96 1018.8
20260510001121 54 0.0 0.0 0.01 0.51 0.51 96 1018.8
20260510001021 54 0.0 0.0 0.02 0.51 0.51 96 1018.8
20260510000920 54 0.0 0.0 0.02 0.51 0.51 96 1018.8
20260510000822 54 113 1.0 2.0 0.02 0.51 0.51 96 1018.8
20260510000720 54 113 1.0 2.0 0.02 0.51 0.51 96 1018.8
20260510000621 54 0.0 0.0 0.02 0.51 0.51 96 1018.7
20260510000521 54 0.0 0.0 0.03 0.51 0.51 96 1018.7
20260510000442 54 0.0 1.0 0.03 0.51 0.51 96 1018.8
20260510000321 54 0.0 1.0 0.03 0.51 0.51 96 1018.7
20260510000221 54 0.0 0.0 0.03 0.51 0.51 96 1018.7
20260510000121 54 0.0 1.0 0.04 0.51 0.51 96 1018.7
20260510000021 54 113 1.0 2.0 0.04 0.51 0.51 96 1018.7
20260509235921 54 113 1.0 2.0 0.04 0.51 0.51 96 1018.7
20260509235821 54 0.0 1.0 0.04 0.51 0.51 96 1018.6
20260509235720 54 0.0 0.0 0.05 0.51 0.51 96 1018.6
20260509235621 54 0.0 0.0 0.05 0.51 0.51 96 1018.6
20260509235521 54 0.0 0.0 0.05 0.51 0.51 96 1018.6
20260509235421 54 0.0 0.0 0.06 0.51 0.51 96 1018.5
20260509235321 54 0.0 0.0 0.07 0.51 0.51 96 1018.5
20260509235221 54 0.0 0.0 0.07 0.51 0.51 96 1018.4
20260509235121 54 0.0 0.0 0.08 0.51 0.51 96 1018.3
20260509235020 54 0.0 1.0 0.11 0.51 0.51 96 1018.3
20260509234921 54 113 1.0 2.0 0.11 0.51 0.51 96 1018.3
20260509234820 53 113 1.0 2.0 0.11 0.51 0.51 96 1018.2
20260509234721 54 113 1.0 2.0 0.11 0.51 0.51 96 1018.3
20260509234621 54 113 1.0 1.0 0.11 0.51 0.51 96 1018.2
20260509234601 54 113 1.0 2.0 0.11 0.51 0.51 96 1018.2
20260509234421 54 113 1.0 2.0 0.12 0.51 0.51 96 1018.1
20260509234320 54 113 1.0 2.0 0.12 0.51 0.51 96 1018.2
20260509234241 54 113 1.0 2.0 0.13 0.51 0.51 96 1018.2
20260509234121 53 113 1.0 3.0 0.13 0.51 0.51 96 1018.2
20260509234021 53 113 2.0 4.0 0.14 0.51 0.51 96 1018.2
20260509233921 53 113 2.0 3.0 0.14 0.51 0.51 96 1018.2
20260509233821 54 113 2.0 4.0 0.15 0.51 0.51 96 1018.2
20260509233721 54 113 2.0 3.0 0.15 0.51 0.51 96 1018.2
20260509233701 54 113 1.0 2.0 0.15 0.51 0.51 96 1018.2
20260509233522 54 113 1.0 2.0 0.15 0.51 0.51 96 1018.2
20260509233422 54 113 2.0 3.0 0.16 0.51 0.51 96 1018.4
20260509233341 54 158 2.0 3.0 0.16 0.51 0.51 96 1018.5
20260509233221 54 158 1.0 2.0 0.16 0.51 0.51 96 1018.6
20260509233121 54 0.0 1.0 0.16 0.51 0.51 96 1018.6
20260509233021 54 0.0 0.0 0.16 0.51 0.51 96 1018.6
20260509232922 54 0.0 0.0 0.16 0.51 0.51 95 1018.7
20260509232823 54 0.0 0.0 0.17 0.51 0.51 95 1018.6
20260509232721 54 0.0 0.0 0.17 0.51 0.51 95 1018.8
20260509232622 54 0.0 1.0 0.17 0.51 0.51 95 1018.8
20260509232523 54 0.0 1.0 0.17 0.51 0.51 95 1018.8
20260509232420 54 0.0 0.0 0.17 0.51 0.51 95 1018.8
20260509232343 54 0.0 0.0 0.17 0.51 0.51 95 1018.8
20260509232223 54 0.0 0.0 0.17 0.51 0.51 95 1018.8
20260509232122 54 0.0 1.0 0.17 0.51 0.51 95 1018.9
20260509232021 54 0.0 1.0 0.16 0.50 0.50 95 1018.9
20260509231921 54 0.0 1.0 0.16 0.50 0.50 95 1018.9
20260509231821 54 113 1.0 1.0 0.16 0.50 0.50 95 1018.9
20260509231721 54 113 1.0 2.0 0.17 0.50 0.50 95 1018.9
20260509231621 54 0.0 0.0 0.17 0.50 0.50 95 1018.9
20260509231541 54 113 1.0 2.0 0.17 0.50 0.50 95 1019.0
20260509231440 54 113 2.0 3.0 0.17 0.50 0.50 95 1019.0
20260509231323 54 113 2.0 3.0 0.17 0.50 0.50 95 1019.0
20260509231222 54 113 3.0 4.0 0.17 0.50 0.50 95 1019.1
20260509231122 54 180 2.0 4.0 0.18 0.50 0.50 95 1019.1
20260509231021 54 0.0 1.0 0.17 0.49 0.49 95 1019.2
20260509230921 54 0.0 1.0 0.17 0.49 0.49 95 1019.2
20260509230822 54 0.0 1.0 0.17 0.49 0.49 95 1019.2
20260509230721 54 0.0 0.0 0.18 0.49 0.49 95 1019.2
20260509230621 54 0.0 0.0 0.18 0.49 0.49 95 1019.2
20260509230541 54 0.0 0.0 0.18 0.48 0.48 95 1019.2
20260509230420 54 0.0 2.0 0.19 0.48 0.48 95 1019.3
20260509230321 54 180 1.0 2.0 0.20 0.48 0.48 95 1019.3
20260509230221 54 270 1.0 2.0 0.20 0.48 0.48 95 1019.4
20260509230122 54 270 1.0 1.0 0.19 0.47 0.47 95 1019.4
20260509230022 54 270 1.0 1.0 0.20 0.47 0.47 95 1019.4
20260509225925 54 0.0 1.0 0.20 0.47 0.47 95 1019.5
20260509225825 54 270 1.0 1.0 0.21 0.47 0.47 95 1019.6
20260509225724 54 270 1.0 2.0 0.20 0.46 0.46 95 1019.6
20260509225622 54 0.0 1.0 0.20 0.46 0.46 95 1019.6
20260509225523 54 0.0 2.0 0.21 0.46 0.46 95 1019.7
20260509225420 54 270 1.0 2.0 0.20 0.45 0.45 95 1019.7